Latitude: N 50° 09' 49" Longitude: W 05° 11' 53" Elevation: 168m ASL

There are 14 visitors online

Adverts

<- Previous Day | Today | Next Day ->

All Data for 21 September 2018

Time
A - D
Temp
A - D
Dew Point
A - D
Humidity
A - D
Pressure
A - D
Wind
A - D
Wind Dir Gust
A - D
Rain Rate
A - D
Rain Total
00:00 12.0 11.9 99 1003.0 13.6 S 17.4 0.0 0.0
00:01 12.0 11.9 99 1002.8 14.5 S 17.4 0.0 0.0
00:02 12.0 11.9 99 1002.9 13.6 W 17.4 0.0 0.0
00:03 12.0 11.9 99 1002.9 13.0 S 17.4 0.0 0.0
00:04 12.0 11.9 99 1002.9 9.8 SW 17.4 0.0 0.0
00:05 11.9 11.8 99 1003.0 12.1 SE 17.4 0.0 0.0
00:06 11.9 11.8 99 1002.9 13.6 NW 17.4 0.0 0.0
00:08 11.9 11.8 99 1003.0 10.7 SW 17.4 0.0 0.0
00:09 11.9 11.8 99 1003.1 13.6 S 17.4 0.0 0.0
00:10 11.9 11.8 99 1003.0 14.5 S 14.5 0.0 0.0
00:11 11.9 11.8 99 1002.9 14.5 S 14.5 0.0 0.0
00:12 11.9 11.8 99 1003.1 14.5 S 14.5 0.0 0.0
00:13 11.9 11.8 99 1002.9 14.5 S 14.5 0.0 0.0
00:14 11.9 11.8 99 1002.8 14.5 S 14.5 0.0 0.0
00:15 11.9 11.8 99 1003.1 9.8 S 14.5 0.0 0.0
00:16 11.9 11.8 99 1003.0 13.6 SW 14.5 0.0 0.0
00:17 11.9 11.8 99 1002.9 11.4 SW 14.5 0.0 0.0
00:18 11.9 11.8 99 1003.0 12.1 S 14.5 0.0 0.0
00:19 11.9 11.8 99 1003.0 10.7 SW 14.5 0.0 0.0
00:20 11.9 11.8 99 1002.9 6.0 S 14.5 0.0 0.0
00:21 11.9 11.8 99 1003.0 8.3 SW 14.5 0.0 0.0
00:22 11.9 11.8 99 1003.0 11.4 SSW 14.5 0.0 0.0
00:23 11.9 11.8 99 1003.0 11.4 SSW 14.5 0.0 0.0
00:24 11.9 11.8 99 1002.9 13.6 SW 14.5 0.0 0.0
00:25 11.9 11.8 99 1003.0 9.8 S 13.6 0.0 0.0
00:27 11.9 11.8 99 1002.9 9.8 S 14.5 0.0 0.0
00:28 11.9 11.8 99 1003.0 14.5 SW 14.5 0.0 0.0
00:29 11.9 11.8 99 1002.9 9.2 W 14.5 0.0 0.0
00:30 12.0 11.9 99 1002.8 11.4 SW 14.5 0.0 0.0
00:31 12.0 11.9 99 1002.9 16.8 S 16.8 0.0 0.0
00:32 12.0 11.9 99 1002.8 7.6 S 16.8 0.0 0.0
00:33 12.0 11.9 99 1002.9 9.8 SW 16.8 0.0 0.0
00:34 12.1 12.0 99 1002.8 11.4 S 16.8 0.0 0.0
00:35 12.1 12.0 99 1003.0 11.4 S 16.8 0.0 0.0
00:36 12.1 12.0 99 1002.8 11.4 SSW 16.8 0.0 0.0
00:37 12.1 12.0 99 1002.8 13.0 SSW 16.8 0.0 0.0
00:38 12.1 12.0 99 1002.9 15.2 S 16.8 0.0 0.0
00:39 12.1 12.0 99 1002.9 16.8 SW 16.8 0.0 0.0
00:40 12.2 12.1 99 1002.8 13.6 W 16.8 0.0 0.0
00:41 12.2 12.1 99 1002.9 12.1 SW 16.8 0.0 0.0
00:42 12.2 12.1 99 1003.1 12.1 S 16.8 0.0 0.0
00:43 12.2 12.1 99 1003.0 14.5 SW 16.8 0.0 0.0
00:45 12.2 12.1 99 1003.1 13.6 S 18.3 0.0 0.0
00:46 12.3 12.2 99 1002.9 17.4 SW 18.3 0.0 0.0
00:47 12.3 12.2 99 1003.0 15.2 SW 18.3 0.0 0.0
00:48 12.3 12.2 99 1002.9 12.1 SW 18.3 0.0 0.0
00:49 12.3 12.2 99 1003.0 11.4 WSW 18.3 0.0 0.0
00:50 12.3 12.2 99 1002.9 9.2 SW 18.3 0.0 0.0
00:51 12.3 12.2 99 1003.1 10.7 S 18.3 0.0 0.0
00:52 12.3 12.2 99 1002.9 12.1 SW 18.3 0.0 0.0
00:53 12.3 12.2 99 1003.0 11.4 N 18.3 0.0 0.0
00:54 12.4 12.3 99 1003.2 20.6 S 20.6 0.0 0.0
00:55 12.4 12.3 99 1003.0 17.4 SW 20.6 0.0 0.0
00:56 12.3 12.2 99 1002.9 17.4 S 20.6 0.0 0.0
00:57 12.4 12.3 99 1003.1 22.8 SW 22.8 0.0 0.0
00:58 12.4 12.3 99 1003.1 13.6 SW 22.8 0.0 0.0
00:59 12.4 12.3 99 1003.1 13.0 W 22.8 0.0 0.0
01:00 12.4 12.3 99 1003.1 12.1 WSW 22.8 0.0 0.0
01:01 12.4 12.3 99 1003.1 11.4 NW 22.8 0.0 0.0
01:02 12.4 12.3 99 1003.1 14.5 SW 22.8 0.0 0.0
01:03 12.4 12.3 99 1003.1 7.6 W 22.8 0.0 0.0
01:04 12.4 12.3 99 1003.1 9.2 SW 22.8 0.0 0.0
01:05 12.4 12.3 99 1003.1 11.4 SW 22.8 0.8 0.1
01:06 12.4 12.3 99 1003.2 9.8 SW 22.8 0.8 0.1
01:07 12.3 12.2 99 1003.4 15.9 SW 15.9 0.8 0.1
01:08 12.4 12.3 99 1003.6 17.4 SW 17.4 0.8 0.1
01:09 12.3 12.2 99 1003.6 22.1 SW 22.1 1.5 0.1
01:10 12.3 12.2 99 1003.6 18.3 SW 22.1 1.5 0.2
01:11 12.3 12.2 99 1003.6 18.3 SW 22.1 1.5 0.2
01:12 12.3 12.2 99 1003.6 16.8 WSW 22.1 1.5 0.2
01:13 12.2 12.1 99 1003.9 21.3 W 22.1 3.0 0.3
01:15 12.1 12.0 99 1003.9 15.2 NW 22.1 2.3 0.4
01:16 12.0 11.9 99 1004.0 25.1 W 25.1 3.0 0.4
01:17 11.9 11.8 99 1004.1 22.8 WNW 25.1 3.8 0.5
01:18 11.9 11.8 99 1004.2 15.9 W 25.1 2.3 0.5
01:19 11.8 11.7 99 1004.1 15.2 W 25.1 2.3 0.5
01:20 11.8 11.7 99 1004.1 19.7 W 25.1 1.5 0.5
01:21 11.7 11.6 99 1004.2 10.7 SW 25.1 1.5 0.6
01:22 11.6 11.5 99 1004.2 9.2 W 25.1 0.8 0.6
01:23 11.5 11.4 99 1004.3 13.6 SW 25.1 0.8 0.6
01:24 11.5 11.4 99 1004.3 12.1 WNW 25.1 0.8 0.6
01:25 11.5 11.4 99 1004.6 12.1 NE 25.1 0.8 0.6
01:26 11.4 11.3 99 1004.3 9.8 N 22.8 0.0 0.6
01:27 11.4 11.3 99 1004.5 13.6 SW 22.8 0.0 0.6
01:28 11.4 11.3 99 1004.4 13.0 NW 22.8 0.0 0.6
01:29 11.4 11.3 99 1004.5 11.4 N 22.8 0.0 0.6
01:30 11.4 11.3 99 1004.6 14.5 NW 22.8 0.0 0.6
01:31 11.3 11.2 99 1004.4 15.2 NW 22.8 0.0 0.6
01:32 11.3 11.2 99 1004.7 11.4 WNW 22.8 0.0 0.6
01:34 11.3 11.2 99 1004.8 19.0 W 19.0 0.0 0.6
01:35 11.3 11.2 99 1004.7 11.4 NW 19.0 0.0 0.6
01:36 11.3 11.2 99 1004.7 19.7 NW 19.7 0.0 0.6
01:37 11.3 11.2 99 1004.9 18.3 NW 19.7 0.0 0.6
01:38 11.3 11.2 99 1004.8 18.3 SW 19.7 0.0 0.6
01:39 11.3 11.2 99 1005.0 19.0 NW 19.7 0.0 0.6
01:40 11.3 11.2 99 1005.1 19.0 NW 19.7 0.0 0.6
01:41 11.3 11.2 99 1005.0 13.0 SW 19.7 0.0 0.6
01:42 11.3 11.2 99 1005.0 19.0 SW 19.7 0.0 0.6
01:43 11.3 11.2 99 1005.1 14.5 SW 19.7 0.0 0.6
01:44 11.3 11.2 99 1005.2 17.4 S 19.7 0.0 0.6
01:45 11.2 11.1 99 1005.3 15.2 NW 19.7 0.0 0.6
01:46 11.4 11.3 99 1005.4 12.1 W 19.7 0.0 0.6
01:47 11.2 11.1 99 1005.2 15.9 NW 19.0 0.0 0.6
01:48 11.1 11.0 99 1005.3 15.9 NW 19.0 0.0 0.6
01:49 11.1 11.0 99 1005.4 12.1 WNW 19.0 0.0 0.6
01:50 11.1 11.0 99 1005.4 15.9 S 19.0 0.0 0.6
01:51 11.1 11.0 99 1005.4 13.6 SW 19.0 0.0 0.6
01:53 11.0 10.9 99 1005.5 17.4 SW 17.4 0.0 0.6
01:54 11.0 10.9 99 1005.5 13.6 SW 17.4 0.0 0.6
01:55 11.0 10.9 99 1005.3 14.5 NW 17.4 0.0 0.6
01:56 11.0 10.9 99 1005.4 9.2 NNE 17.4 0.0 0.6
01:57 11.0 10.9 99 1005.5 13.6 NNE 17.4 0.0 0.6
01:58 11.0 10.9 99 1005.4 16.8 NW 17.4 0.0 0.6
01:59 10.9 10.8 99 1005.7 13.0 W 17.4 0.0 0.6
02:00 10.9 10.8 99 1005.3 15.9 NW 17.4 0.0 0.6
02:01 10.9 10.8 99 1005.7 15.9 NW 17.4 0.0 0.6
02:02 10.9 10.8 99 1005.6 9.8 W 17.4 0.0 0.6
02:03 10.9 10.8 99 1005.6 15.9 W 16.8 0.0 0.6
02:04 10.9 10.8 99 1005.7 15.9 N 16.8 0.0 0.6
02:05 10.9 10.8 99 1005.8 19.7 W 19.7 0.0 0.6
02:06 10.9 10.8 99 1005.8 14.5 W 19.7 0.0 0.6
02:07 10.8 10.7 99 1005.8 11.4 W 19.7 0.0 0.6
02:08 10.8 10.7 99 1005.8 13.0 SW 19.7 0.0 0.6
02:09 10.8 10.7 99 1005.7 13.0 SW 19.7 0.0 0.6
02:10 10.8 10.7 99 1005.8 12.1 NW 19.7 0.0 0.6
02:12 10.8 10.7 99 1005.8 15.2 SW 19.7 0.0 0.6
02:13 10.8 10.7 99 1006.0 15.2 W 19.7 0.0 0.6
02:14 10.8 10.7 99 1006.0 9.2 NW 19.7 0.0 0.6
02:15 10.8 10.7 99 1006.2 11.4 W 19.7 0.0 0.6
02:16 10.7 10.6 99 1005.9 19.0 N 19.0 0.0 0.6
02:17 10.7 10.6 99 1005.9 16.8 NW 19.0 0.0 0.6
02:18 10.8 10.7 99 1006.2 13.0 NW 19.0 0.0 0.6
02:19 10.7 10.6 99 1006.3 12.1 W 19.0 0.8 0.6
02:20 10.7 10.6 99 1006.2 13.6 SW 19.0 0.8 0.6
02:21 10.7 10.6 99 1006.2 9.8 SW 19.0 0.8 0.6
02:22 10.7 10.6 99 1006.3 6.9 W 19.0 0.8 0.6
02:23 10.7 10.6 99 1006.3 12.1 WSW 19.0 0.8 0.6
02:24 10.7 10.6 99 1006.4 10.7 NW 19.0 0.0 0.6
02:25 10.7 10.6 99 1006.4 12.1 NW 19.0 0.0 0.6
02:26 10.7 10.6 99 1006.3 17.4 NW 19.0 0.0 0.6
02:27 10.7 10.6 99 1006.5 13.6 WSW 17.4 0.0 0.6
02:28 10.7 10.6 99 1006.7 9.8 SW 17.4 0.0 0.6
02:29 10.7 10.6 99 1006.4 13.0 W 17.4 0.0 0.6
02:30 10.7 10.6 99 1006.4 13.0 NW 17.4 0.0 0.6
02:32 10.7 10.6 99 1006.6 15.9 N 17.4 0.0 0.6
02:33 10.7 10.6 99 1006.7 13.0 W 17.4 0.0 0.6
02:34 10.7 10.6 99 1006.7 13.0 W 17.4 0.0 0.6
02:35 10.7 10.6 99 1006.7 18.3 NW 18.3 0.0 0.6
02:36 10.7 10.6 99 1006.7 14.5 SW 18.3 0.0 0.6
02:37 10.7 10.6 99 1006.8 15.2 NW 18.3 0.0 0.6
02:38 10.7 10.6 99 1006.8 15.9 NW 22.1 0.0 0.6
02:39 10.7 10.6 99 1006.7 12.1 N 22.1 0.0 0.6
02:40 10.6 10.5 99 1006.8 15.2 NW 22.1 0.0 0.6
02:41 10.6 10.5 99 1006.8 11.4 NW 22.1 0.0 0.6
02:42 10.6 10.5 99 1006.8 15.2 WSW 22.1 0.0 0.6
02:43 10.6 10.5 99 1006.7 13.6 NW 22.1 0.0 0.6
02:44 10.6 10.5 99 1007.0 12.1 NW 22.1 0.0 0.6
02:45 10.6 10.5 99 1007.0 13.6 SW 22.1 0.0 0.6
02:46 10.6 10.5 99 1007.0 17.4 NW 22.1 0.0 0.6
02:47 10.6 10.5 99 1007.0 16.8 W 22.1 0.0 0.6
02:48 10.5 10.4 99 1007.1 11.4 NW 22.1 0.0 0.6
02:49 10.5 10.4 99 1006.9 13.0 WSW 17.4 0.0 0.6
02:51 10.5 10.4 99 1007.1 8.3 W 17.4 0.0 0.6
02:52 10.5 10.4 99 1007.1 12.1 SW 17.4 0.0 0.6
02:53 10.5 10.4 99 1007.1 14.5 W 17.4 0.0 0.6
02:54 10.5 10.4 99 1007.1 13.0 SW 17.4 0.0 0.6
02:55 10.4 10.3 99 1007.1 14.5 NW 17.4 0.0 0.6
02:56 10.4 10.3 99 1007.2 12.1 NW 17.4 0.0 0.6
02:57 10.4 10.3 99 1007.3 18.3 S 18.3 0.0 0.6
02:58 10.4 10.3 99 1007.2 16.8 W 18.3 0.0 0.6
02:59 10.4 10.3 99 1007.2 17.4 WNW 18.3 0.0 0.6
03:00 10.4 10.3 99 1007.2 11.4 NW 18.3 0.0 0.6
03:01 10.4 10.3 99 1007.4 12.1 NW 18.3 0.0 0.6
03:02 10.4 10.3 99 1007.4 10.7 NW 18.3 0.0 0.6
03:03 10.4 10.3 99 1007.5 17.4 SW 18.3 0.0 0.6
03:04 10.4 10.3 99 1007.4 9.2 NW 18.3 0.0 0.6
03:05 10.3 10.2 99 1007.4 13.0 SW 18.3 0.0 0.6
03:06 10.3 10.2 99 1007.5 13.0 W 18.3 0.0 0.6
03:07 10.3 10.2 99 1007.4 13.0 W 17.4 0.0 0.6
03:08 10.3 10.2 99 1007.4 13.6 WSW 17.4 0.0 0.6
03:09 10.3 10.2 99 1007.5 10.7 E 17.4 0.0 0.6
03:10 10.3 10.2 99 1007.5 21.3 W 21.3 0.0 0.6
03:11 10.3 10.2 99 1007.4 21.3 W 21.3 0.0 0.6
03:13 10.2 10.1 99 1007.4 10.7 NE 21.3 0.0 0.6
03:14 10.2 10.1 99 1007.5 10.7 SW 21.3 0.0 0.6
03:15 10.2 10.1 99 1007.5 14.5 NW 21.3 0.0 0.6
03:16 10.2 10.1 99 1007.4 16.8 W 21.3 0.0 0.6
03:17 10.2 10.1 99 1007.6 12.1 NW 21.3 0.0 0.6
03:18 10.2 10.1 99 1007.5 13.6 NW 21.3 0.0 0.6
03:19 10.2 10.1 99 1007.6 20.6 NW 21.3 0.0 0.6
03:20 10.2 10.1 99 1007.5 10.7 NW 21.3 0.0 0.6
03:21 10.1 10.0 99 1007.7 11.4 NW 20.6 0.0 0.6
03:22 10.2 10.1 99 1007.6 13.0 SW 20.6 0.0 0.6
03:23 10.2 10.1 99 1007.7 13.0 SW 20.6 0.0 0.6
03:24 10.1 10.0 99 1007.6 15.2 NW 20.6 0.0 0.6
03:25 10.1 10.0 99 1007.7 13.0 SW 20.6 0.0 0.6
03:26 10.1 10.0 99 1007.7 9.2 NW 20.6 0.0 0.6
03:27 10.1 10.0 99 1007.7 9.2 NW 20.6 0.0 0.6
03:28 10.1 10.0 99 1007.8 13.6 SW 20.6 0.0 0.6
03:29 10.1 10.0 99 1007.8 11.4 NW 20.6 0.0 0.6
03:30 10.1 10.0 99 1007.8 11.4 SW 15.9 0.0 0.6
03:32 10.1 10.0 99 1007.8 11.4 N 15.9 0.0 0.6
03:33 10.1 10.0 99 1007.8 9.8 WSW 15.2 0.0 0.6
03:34 10.1 10.0 99 1007.9 14.5 WSW 15.2 0.0 0.6
03:35 10.1 10.0 99 1007.9 17.4 SW 17.4 0.0 0.6
03:36 10.1 10.0 99 1007.9 14.5 WNW 17.4 0.0 0.6
03:37 10.1 10.0 99 1008.0 10.7 WNW 17.4 0.0 0.6
03:38 10.1 10.0 99 1008.1 9.2 NW 17.4 0.0 0.6
03:39 10.0 9.9 99 1008.2 13.6 NW 17.4 0.0 0.6
03:40 10.0 9.9 99 1008.1 9.8 NW 17.4 0.0 0.6
03:41 10.0 9.9 99 1008.1 9.2 WSW 17.4 0.0 0.6
03:42 10.0 9.9 99 1008.2 13.0 SW 17.4 0.0 0.6
03:43 10.0 9.9 99 1008.2 10.7 W 17.4 0.0 0.6
03:44 10.0 9.9 99 1008.3 15.2 NW 17.4 0.0 0.6
03:45 10.0 9.9 99 1008.2 12.1 W 16.8 0.0 0.6
03:46 9.9 9.8 99 1008.3 9.8 WNW 15.2 0.0 0.6
03:47 9.9 9.8 99 1008.2 9.2 SW 15.2 0.0 0.6
03:48 9.9 9.8 99 1008.1 15.9 NW 15.9 0.0 0.6
03:49 9.9 9.8 99 1008.2 15.2 NW 15.9 0.0 0.6
03:51 9.9 9.8 99 1008.2 12.1 NW 15.9 0.0 0.6
03:52 9.8 9.7 99 1008.2 9.8 E 15.9 0.0 0.6
03:53 9.8 9.7 99 1008.2 9.2 E 15.9 0.0 0.6
03:55 9.8 9.7 99 1008.2 13.0 W 15.9 0.0 0.6
03:56 9.8 9.7 99 1008.2 18.3 NW 18.3 0.0 0.6
03:57 9.8 9.7 99 1008.3 13.6 W 18.3 0.0 0.6
03:58 9.8 9.7 99 1008.3 8.3 NW 18.3 0.0 0.6
03:59 9.8 9.7 99 1008.4 9.8 NW 18.3 0.0 0.6
04:00 9.8 9.7 99 1008.5 6.9 W 18.3 0.0 0.6
04:01 9.8 9.7 99 1008.3 10.7 NW 18.3 0.0 0.6
04:02 9.7 9.6 99 1008.5 12.1 SW 18.3 0.0 0.6
04:03 9.7 9.6 99 1008.4 7.6 S 18.3 0.0 0.6
04:04 9.7 9.6 99 1008.5 7.6 NE 18.3 0.0 0.6
04:05 9.7 9.6 99 1008.5 7.6 SW 18.3 0.0 0.6
04:06 9.7 9.6 99 1008.6 9.8 W 13.6 0.0 0.6
04:07 9.7 9.6 99 1008.5 9.2 S 12.1 0.0 0.6
04:08 9.7 9.6 99 1008.6 9.8 W 12.1 0.0 0.6
04:09 9.7 9.6 99 1008.6 11.4 W 12.1 0.0 0.6
04:10 9.7 9.6 99 1008.7 9.2 NW 12.1 0.0 0.6
04:11 9.7 9.6 99 1008.6 9.2 NW 12.1 0.0 0.6
04:12 9.7 9.6 99 1008.7 9.2 S 12.1 0.0 0.6
04:13 9.7 9.6 99 1008.7 6.9 SW 11.4 0.0 0.6
04:15 9.6 9.5 99 1008.8 8.3 SW 11.4 0.0 0.6
04:16 9.6 9.5 99 1008.8 8.3 SW 11.4 0.0 0.6
04:17 9.6 9.5 99 1008.8 6.9 W 11.4 0.0 0.6
04:18 9.6 9.5 99 1008.5 8.3 NW 11.4 0.0 0.6
04:19 9.6 9.5 99 1008.7 9.2 SW 9.2 0.0 0.6
04:20 9.7 9.6 99 1008.9 8.3 NW 9.2 0.0 0.6
04:21 9.7 9.6 99 1008.8 7.6 W 9.2 0.0 0.6
04:22 9.6 9.5 99 1008.8 11.4 W 11.4 0.0 0.6
04:23 9.6 9.5 99 1008.8 13.0 S 13.0 0.0 0.6
04:24 9.6 9.5 99 1008.9 9.8 SW 13.0 0.0 0.6
04:25 9.6 9.5 99 1008.8 9.2 S 13.0 0.0 0.6
04:26 9.7 9.6 99 1008.9 10.7 W 13.0 0.0 0.6
04:27 9.6 9.5 99 1008.8 9.8 SW 13.0 0.0 0.6
04:28 9.6 9.5 99 1008.8 11.4 NW 13.0 0.0 0.6
04:29 9.6 9.5 99 1008.9 9.2 SW 13.0 0.0 0.6
04:30 9.6 9.5 99 1008.9 13.0 W 13.0 0.0 0.6
04:31 9.6 9.5 99 1009.0 13.0 W 13.0 0.0 0.6
04:32 9.7 9.6 99 1009.0 7.6 SW 13.0 0.0 0.6
04:34 9.6 9.5 99 1008.9 6.9 SW 13.0 0.0 0.6
04:35 9.6 9.5 99 1009.0 6.0 SW 13.0 0.0 0.6
04:36 9.7 9.6 99 1009.0 6.9 SW 13.0 0.0 0.6
04:37 9.6 9.5 99 1009.0 10.7 W 13.0 0.0 0.6
04:38 9.7 9.6 99 1009.0 8.3 WSW 13.0 0.0 0.6
04:39 9.7 9.6 99 1008.9 8.3 SW 13.0 0.0 0.6
04:40 9.7 9.6 99 1008.9 7.6 SW 13.0 0.0 0.6
04:41 9.7 9.6 99 1009.0 9.2 W 11.4 0.0 0.6
04:42 9.7 9.6 99 1008.9 15.2 W 15.2 0.0 0.6
04:43 9.7 9.6 99 1009.0 15.9 W 15.9 0.0 0.6
04:44 9.7 9.6 99 1009.1 13.6 NW 15.9 0.0 0.6
04:45 9.7 9.6 99 1009.2 16.8 W 16.8 0.0 0.6
04:46 9.8 9.7 99 1009.1 13.6 NW 16.8 0.0 0.6
04:47 9.8 9.7 99 1009.1 13.6 NW 16.8 0.0 0.6
04:48 9.8 9.7 99 1009.0 13.6 NW 16.8 0.0 0.6
04:49 9.8 9.7 99 1009.1 13.0 S 16.8 0.0 0.6
04:50 9.8 9.7 99 1009.2 12.1 SW 16.8 0.0 0.6
04:52 9.9 9.8 99 1009.2 9.8 S 16.8 0.0 0.6
04:53 9.9 9.8 99 1009.3 9.2 SW 16.8 0.0 0.6
04:54 9.8 9.7 99 1009.3 14.5 SW 16.8 0.0 0.6
04:55 9.9 9.8 99 1009.2 14.5 S 16.8 0.0 0.6
04:56 9.8 9.7 99 1009.4 12.1 W 15.2 0.0 0.6
04:57 9.8 9.7 99 1009.4 6.9 W 14.5 0.0 0.6
04:58 9.8 9.7 99 1009.4 9.2 SW 14.5 0.0 0.6
04:59 9.8 9.7 99 1009.5 12.1 NW 14.5 0.0 0.6
05:00 9.8 9.7 99 1009.4 14.5 NW 14.5 0.0 0.6
05:01 9.8 9.7 99 1009.4 12.1 N 14.5 0.0 0.6
05:02 9.8 9.7 99 1009.4 9.8 NW 14.5 0.0 0.6
05:03 9.8 9.7 99 1009.3 9.2 W 14.5 0.0 0.6
05:04 9.8 9.7 99 1009.3 12.1 W 14.5 0.0 0.6
05:05 9.8 9.7 99 1009.4 8.3 NW 14.5 0.0 0.6
05:06 9.8 9.7 99 1009.3 9.2 SSW 14.5 0.0 0.6
05:07 9.8 9.7 99 1009.3 13.6 W 14.5 0.0 0.6
05:08 9.8 9.7 99 1009.3 7.6 W 14.5 0.0 0.6
05:09 9.8 9.7 99 1009.3 11.4 W 14.5 0.0 0.6
05:10 9.8 9.7 99 1009.3 7.6 S 14.5 0.0 0.6
05:11 9.8 9.7 99 1009.4 7.6 S 14.5 0.0 0.6
05:12 9.8 9.7 99 1009.3 7.6 S 14.5 0.0 0.6
05:14 9.8 9.7 99 1009.3 7.6 S 14.5 0.0 0.6
05:15 9.8 9.7 99 1009.3 7.6 S 14.5 0.0 0.6
05:16 9.8 9.7 99 1009.3 10.7 SW 13.6 0.0 0.6
05:17 9.7 9.6 99 1009.4 10.7 SW 13.6 0.0 0.6
05:18 9.7 9.6 99 1009.4 8.3 N 11.4 0.0 0.6
05:19 9.7 9.6 99 1009.5 9.2 S 10.7 0.0 0.6
05:20 9.7 9.6 99 1009.4 14.5 W 14.5 0.0 0.6
05:21 9.7 9.6 99 1009.5 7.6 WSW 14.5 0.0 0.6
05:22 9.7 9.6 99 1009.5 11.4 NW 14.5 0.0 0.6
05:23 9.7 9.6 99 1009.3 9.8 W 14.5 0.0 0.6
05:24 9.7 9.6 99 1009.5 7.6 SW 14.5 0.0 0.6
05:25 9.7 9.6 99 1009.5 8.3 W 14.5 0.0 0.6
05:26 9.7 9.6 99 1009.5 11.4 W 14.5 0.0 0.6
05:27 9.7 9.6 99 1009.5 11.4 W 14.5 0.0 0.6
05:28 9.7 9.6 99 1009.5 9.2 WSW 14.5 0.0 0.6
05:29 9.7 9.6 99 1009.5 11.4 SW 14.5 0.0 0.6
05:30 9.7 9.6 99 1009.5 10.7 NW 14.5 0.0 0.6
05:31 9.7 9.6 99 1009.6 8.3 WSW 11.4 0.0 0.6
05:33 9.7 9.6 99 1009.6 13.0 SW 13.0 0.0 0.6
05:34 9.7 9.6 99 1009.7 15.9 W 15.9 0.0 0.6
05:35 9.7 9.6 99 1009.8 13.0 WNW 15.9 0.0 0.6
05:36 9.7 9.6 99 1009.9 15.2 SW 15.9 0.0 0.6
05:37 9.7 9.6 99 1010.1 14.5 SW 15.9 0.0 0.6
05:38 9.7 9.6 99 1010.1 18.3 W 18.3 0.0 0.6
05:39 9.7 9.6 99 1010.1 13.0 SW 18.3 0.0 0.7
05:40 9.7 9.6 99 1010.0 15.2 SW 18.3 1.5 0.8
05:41 9.7 9.6 99 1010.0 9.2 W 18.3 1.5 0.8
05:42 9.7 9.6 99 1010.0 7.6 W 18.3 2.3 0.8
05:43 9.6 9.5 99 1009.9 10.7 NW 18.3 2.3 0.8
05:44 9.6 9.5 99 1009.9 15.2 SW 18.3 2.3 0.8
05:45 9.6 9.5 99 1010.0 13.6 N 18.3 0.8 0.8
05:46 9.6 9.5 99 1009.9 9.2 SW 18.3 0.8 0.8
05:47 9.6 9.5 99 1010.0 10.7 NW 18.3 0.0 0.8
05:48 9.5 9.4 99 1010.1 10.7 SW 18.3 0.0 0.8
05:49 9.5 9.4 99 1010.0 10.7 S 15.2 0.0 0.8
05:50 9.5 9.4 99 1010.1 9.8 WSW 15.2 0.0 0.8
05:52 9.4 9.3 99 1010.1 10.7 SW 15.2 0.0 0.8
05:53 9.4 9.3 99 1010.1 7.6 SW 15.2 0.0 0.8
05:54 9.4 9.3 99 1010.0 9.2 N 15.2 0.0 0.8
05:55 9.3 9.2 99 1010.0 6.9 NW 13.6 0.0 0.8
05:56 9.3 9.2 99 1010.2 8.3 W 12.1 0.0 0.8
05:57 9.3 9.2 99 1010.0 9.2 W 12.1 0.0 0.8
05:58 9.3 9.2 99 1010.0 9.2 W 12.1 0.0 0.8
05:59 9.2 9.1 99 1010.0 6.9 W 12.1 0.0 0.8
06:00 9.2 9.1 99 1010.0 6.0 SSE 12.1 0.0 0.8
06:01 9.2 9.1 99 1010.1 6.0 SW 10.7 0.0 0.8
06:02 9.2 9.1 99 1010.3 6.9 SW 9.2 0.0 0.8
06:03 9.2 9.1 99 1010.3 6.0 SW 9.2 0.0 0.8
06:04 9.2 9.1 99 1010.1 6.0 SW 9.2 0.0 0.8
06:05 9.1 9.0 99 1010.2 6.9 SW 9.2 0.0 0.8
06:06 9.1 9.0 99 1010.2 6.0 SW 9.2 0.0 0.8
06:07 9.1 9.0 99 1010.2 6.0 SW 9.2 0.0 0.8
06:08 9.1 9.0 99 1010.2 8.3 SW 9.2 0.0 0.8
06:09 9.1 9.0 99 1010.3 6.0 S 8.3 0.0 0.8
06:11 9.1 9.0 99 1010.3 5.4 SW 8.3 0.0 0.8
06:12 9.1 9.0 99 1010.3 6.0 SW 8.3 0.0 0.8
06:13 9.1 9.0 99 1010.3 9.8 S 9.8 0.0 0.8
06:14 9.1 9.0 99 1010.5 9.8 W 9.8 0.0 0.8
06:15 9.1 9.0 99 1010.5 6.9 SW 9.8 0.0 0.8
06:16 9.1 9.0 99 1010.3 7.6 S 9.8 0.0 0.9
06:17 9.1 9.0 99 1010.6 6.0 W 9.8 0.8 0.9
06:18 9.1 9.0 99 1010.5 9.2 S 9.8 0.8 0.9
06:19 9.1 9.0 99 1010.6 6.9 SW 9.8 1.5 1.1
06:20 9.1 9.0 99 1010.5 9.2 SW 9.8 4.5 1.2
06:21 9.2 9.1 99 1010.4 9.2 W 13.6 4.5 1.3
06:22 9.2 9.1 99 1010.5 15.9 SW 15.9 5.3 1.4
06:23 9.2 9.1 99 1010.4 9.8 W 15.9 6.0 1.4
06:24 9.2 9.1 99 1010.6 12.1 SW 15.9 5.3 1.4
06:25 9.2 9.1 99 1010.6 9.2 SW 15.9 2.3 1.4
06:26 9.2 9.1 99 1010.6 12.1 W 15.9 2.3 1.4
06:27 9.3 9.2 99 1010.5 13.0 NW 15.9 0.8 1.4
06:28 9.2 9.1 99 1010.6 10.7 W 15.9 0.0 1.4
06:30 9.3 9.2 99 1010.7 13.6 SW 15.9 0.0 1.4
06:31 9.3 9.2 99 1010.6 14.5 S 15.9 0.0 1.4
06:32 9.3 9.2 99 1010.5 14.5 W 15.9 0.0 1.4
06:33 9.3 9.2 99 1010.6 7.6 WSW 14.5 0.0 1.4
06:34 9.3 9.2 99 1010.5 9.8 SW 14.5 0.0 1.4
06:35 9.3 9.2 99 1010.5 11.4 SW 14.5 0.0 1.4
06:36 9.3 9.2 99 1010.5 10.7 W 14.5 0.0 1.4
06:37 9.3 9.2 99 1010.7 8.3 W 14.5 0.0 1.4
06:38 9.3 9.2 99 1010.5 9.8 NW 14.5 0.0 1.4
06:39 9.3 9.2 99 1010.7 10.7 SW 14.5 0.0 1.4
06:40 9.3 9.2 99 1010.6 9.8 SW 14.5 0.0 1.4
06:41 9.3 9.2 99 1010.7 14.5 WSW 14.5 0.0 1.4
06:42 9.3 9.2 99 1010.7 9.2 WNW 14.5 0.0 1.4
06:43 9.3 9.2 99 1010.8 4.5 SW 14.5 0.0 1.4
06:45 9.3 9.2 99 1011.0 7.6 SW 14.5 0.8 1.4
06:46 9.3 9.2 99 1010.9 6.0 SW 14.5 1.5 1.5
06:47 9.3 9.2 99 1011.0 9.2 WNW 14.5 5.3 2.1
06:48 9.3 9.2 99 1010.8 12.1 W 14.5 8.3 2.1
06:49 9.3 9.2 99 1011.0 9.8 SW 14.5 9.8 2.2
06:50 9.3 9.2 99 1011.0 8.3 SW 14.5 9.1 2.2
06:51 9.3 9.2 99 1011.0 9.8 SW 12.1 8.3 2.2
06:52 9.3 9.2 99 1011.0 13.0 SW 13.0 4.5 2.2
06:53 9.4 9.3 99 1011.1 13.0 NW 13.0 1.5 2.2
06:54 9.4 9.3 99 1011.1 13.0 NW 13.0 0.0 2.2
06:55 9.4 9.3 99 1011.1 10.7 SW 13.0 0.0 2.2
06:56 9.4 9.3 99 1011.2 10.7 S 13.0 0.0 2.2
06:57 9.4 9.3 99 1011.2 11.4 W 13.0 0.0 2.2
06:58 9.4 9.3 99 1011.2 9.2 S 13.0 0.0 2.2
07:00 9.5 9.4 99 1011.1 13.0 SW 13.0 0.0 2.3
07:01 9.5 9.4 99 1011.3 12.1 SW 13.0 0.8 2.3
07:02 9.5 9.4 99 1011.1 9.2 S 13.0 0.8 2.3
07:03 9.5 9.4 99 1011.3 9.2 WSW 13.0 0.8 2.3
07:04 9.5 9.4 99 1011.3 9.2 SW 13.0 0.8 2.3
07:05 9.5 9.4 99 1011.3 9.2 W 13.0 0.8 2.3
07:06 9.5 9.4 99 1011.3 9.8 SW 13.0 0.0 2.3
07:07 9.5 9.4 99 1011.2 10.7 SW 13.0 0.0 2.3
07:08 9.5 9.4 99 1011.3 9.8 NNW 13.0 0.0 2.3
07:09 9.5 9.4 99 1011.3 8.3 SW 13.0 0.0 2.3
07:10 9.5 9.4 99 1011.3 8.3 SW 12.1 0.0 2.3
07:11 9.4 9.3 99 1011.4 9.2 W 10.7 0.0 2.3
07:12 9.4 9.3 99 1011.4 8.3 W 10.7 0.0 2.3
07:13 9.4 9.3 99 1011.3 8.3 W 10.7 0.0 2.3
07:14 9.4 9.3 99 1011.3 10.7 SW 10.7 0.0 2.3
07:15 9.4 9.3 99 1011.5 9.8 NW 10.7 0.0 2.3
07:16 9.4 9.3 99 1011.3 9.2 SW 10.7 0.0 2.3
07:17 9.4 9.3 99 1011.4 8.3 SW 10.7 0.0 2.3
07:18 9.4 9.3 99 1011.4 9.2 W 10.7 0.0 2.3
07:19 9.4 9.3 99 1011.4 9.8 SW 12.1 0.0 2.3
07:20 9.4 9.3 99 1011.3 7.6 W 12.1 0.0 2.3
07:22 9.4 9.3 99 1011.4 6.0 W 12.1 0.0 2.3
07:23 9.4 9.3 99 1011.5 7.6 NNW 12.1 0.0 2.3
07:24 9.4 9.3 99 1011.5 9.8 NNW 12.1 0.0 2.3
07:25 9.4 9.3 99 1011.6 9.8 S 12.1 0.0 2.3
07:26 9.3 9.2 99 1011.6 9.2 S 12.1 0.0 2.3
07:27 9.3 9.2 99 1011.6 9.8 SW 12.1 0.0 2.3
07:28 9.3 9.2 99 1011.7 12.1 W 12.1 0.0 2.3
07:29 9.3 9.2 99 1011.5 10.7 SW 12.1 0.0 2.3
07:30 9.3 9.2 99 1011.6 9.8 SW 12.1 0.0 2.3
07:31 9.3 9.2 99 1011.7 13.0 SW 13.0 0.0 2.3
07:32 9.3 9.2 99 1011.7 13.0 WNW 13.0 0.0 2.3
07:34 9.3 9.2 99 1011.8 11.4 SW 13.0 0.0 2.3
07:35 9.4 9.3 99 1011.9 12.1 W 13.0 0.8 2.3
07:36 9.4 9.3 99 1011.9 11.4 NW 13.0 0.8 2.4
07:37 9.4 9.3 99 1011.8 9.2 W 13.0 1.5 2.4
07:38 9.4 9.3 99 1011.8 13.6 N 14.5 1.5 2.4
07:40 9.4 9.3 99 1012.0 13.6 W 14.5 0.8 2.4
07:41 9.4 9.3 99 1012.0 9.8 SW 14.5 0.8 2.4
07:42 9.4 9.3 99 1011.8 12.1 SW 14.5 0.0 2.4
07:44 9.4 9.3 99 1011.9 12.1 W 14.5 0.0 2.4
07:45 9.4 9.3 99 1012.0 11.4 S 14.5 0.0 2.4
07:46 9.4 9.3 99 1011.9 9.2 WSW 14.5 0.0 2.4
07:47 9.4 9.3 99 1011.8 11.4 W 14.5 0.0 2.4
07:48 9.4 9.3 99 1011.9 7.6 SW 13.6 0.0 2.4
07:49 9.4 9.3 99 1012.0 7.6 SW 13.6 0.0 2.4
07:50 9.4 9.3 99 1012.1 12.1 S 12.1 0.0 2.4
07:51 9.4 9.3 99 1011.9 11.4 NW 12.1 0.0 2.4
07:52 9.3 9.2 99 1012.1 10.7 SW 12.1 0.0 2.4
07:53 9.3 9.2 99 1012.1 10.7 NW 12.1 0.0 2.4
07:54 9.3 9.2 99 1012.1 10.7 NW 12.1 0.0 2.4
07:55 9.3 9.2 99 1012.0 13.0 W 13.0 0.0 2.4
07:56 9.3 9.2 99 1012.0 14.5 SW 14.5 0.0 2.4
07:57 9.3 9.2 99 1012.0 16.8 SW 16.8 0.0 2.4
07:58 9.3 9.2 99 1012.1 14.5 SW 16.8 0.0 2.4
08:00 9.4 9.3 99 1012.1 10.7 N 16.8 0.0 2.4
08:01 9.4 9.3 99 1012.1 13.0 SW 16.8 0.0 2.4
08:02 9.4 9.3 99 1012.2 9.8 SW 16.8 0.0 2.4
08:03 9.4 9.3 99 1012.2 11.4 WNW 16.8 0.0 2.4
08:04 9.4 9.3 99 1012.2 8.3 SW 16.8 0.0 2.4
08:05 9.4 9.3 99 1012.1 10.7 NW 16.8 0.0 2.4
08:06 9.4 9.3 99 1012.2 11.4 SW 16.8 0.0 2.4
08:07 9.5 9.4 99 1012.2 12.1 SW 14.5 0.0 2.4
08:08 9.5 9.4 99 1012.2 9.8 SW 14.5 0.0 2.4
08:09 9.5 9.4 99 1012.2 9.8 SW 14.5 0.0 2.4
08:10 9.5 9.4 99 1012.3 11.4 SW 14.5 0.0 2.4
08:11 9.5 9.4 99 1012.4 11.4 SW 14.5 0.0 2.4
08:12 9.6 9.5 99 1012.3 11.4 SW 14.5 0.0 2.4
08:13 9.6 9.5 99 1012.3 10.7 SW 12.1 0.0 2.4
08:14 9.6 9.5 99 1012.4 9.2 W 12.1 0.0 2.4
08:16 9.7 9.6 99 1012.3 9.2 S 12.1 0.0 2.4
08:17 9.7 9.6 99 1012.4 13.6 SSW 13.6 0.0 2.4
08:18 9.8 9.7 99 1012.4 12.1 SW 13.6 0.0 2.4
08:19 9.8 9.7 99 1012.4 11.4 SW 13.6 0.0 2.4
08:20 9.8 9.7 99 1012.3 10.7 SW 13.6 0.0 2.4
08:21 9.8 9.7 99 1012.4 9.2 SW 13.6 0.0 2.4
08:22 9.9 9.8 99 1012.5 8.3 W 13.6 0.0 2.4
08:23 9.9 9.8 99 1012.6 9.8 SW 13.6 0.0 2.4
08:24 9.9 9.8 99 1012.5 10.7 W 13.6 0.0 2.4
08:25 9.9 9.8 99 1012.6 7.6 SW 13.6 0.0 2.4
08:26 9.9 9.8 99 1012.5 9.8 NW 13.6 0.0 2.4
08:27 9.9 9.8 99 1012.6 9.2 S 13.6 0.0 2.4
08:28 9.9 9.8 99 1012.5 10.7 SW 12.1 0.0 2.4
08:29 10.0 9.9 99 1012.6 9.2 NW 11.4 0.0 2.4
08:30 10.0 9.9 99 1012.5 9.2 NW 10.7 0.0 2.4
08:31 10.0 9.9 99 1012.5 13.6 SW 13.6 0.0 2.4
08:33 10.1 10.0 99 1012.6 13.6 SW 13.6 0.0 2.4
08:34 10.1 10.0 99 1012.6 9.2 SW 13.6 0.0 2.4
08:35 10.1 10.0 99 1012.6 10.7 WSW 13.6 0.0 2.4
08:36 10.1 10.0 99 1012.6 13.0 S 13.6 0.0 2.4
08:37 10.2 10.1 99 1012.7 13.0 S 13.6 0.0 2.4
08:38 10.2 10.1 99 1012.8 19.7 SSE 19.7 0.0 2.4
08:39 10.2 10.1 99 1012.8 20.6 SW 20.6 0.0 2.4
08:40 10.2 10.1 99 1012.7 15.2 SW 20.6 0.0 2.4
08:41 10.3 10.2 99 1012.7 10.7 W 20.6 0.0 2.4
08:42 10.3 10.2 99 1012.8 13.6 W 20.6 0.0 2.4
08:43 10.3 10.2 99 1012.8 13.6 W 20.6 0.0 2.4
08:44 10.3 10.2 99 1012.8 13.0 SW 20.6 0.0 2.4
08:45 10.3 10.2 99 1012.8 12.1 S 20.6 0.0 2.4
08:46 10.3 10.2 99 1012.8 12.1 SW 20.6 0.0 2.4
08:47 10.3 10.2 99 1012.9 9.8 SW 20.6 0.0 2.4
08:49 10.4 10.3 99 1012.8 13.0 SW 20.6 0.0 2.4
08:50 10.4 10.3 99 1012.9 13.6 SW 15.2 0.0 2.4
08:51 10.4 10.3 99 1012.9 7.6 SW 13.6 0.0 2.4
08:52 10.4 10.3 99 1013.0 13.6 SW 13.6 0.0 2.4
08:53 10.4 10.3 99 1012.9 16.8 SW 16.8 0.0 2.4
08:54 10.4 10.3 99 1012.9 15.2 SW 16.8 0.0 2.4
08:55 10.5 10.4 99 1013.1 15.9 SW 16.8 0.0 2.4
08:56 10.5 10.4 99 1012.9 16.8 SW 16.8 0.0 2.4
08:57 10.5 10.4 99 1013.0 17.4 SW 20.6 0.0 2.4
08:58 10.6 10.5 99 1013.0 13.6 SW 20.6 0.0 2.4
08:59 10.6 10.5 99 1013.0 13.6 SW 20.6 0.0 2.4
09:00 10.6 10.5 99 1013.1 13.6 S 20.6 0.0 2.4
09:01 10.6 10.5 99 1012.9 14.5 WSW 20.6 0.0 2.4
09:02 10.6 10.5 99 1013.0 11.4 WSW 20.6 0.0 2.4
09:03 10.6 10.5 99 1013.0 11.4 NW 20.6 0.0 2.4
09:04 10.6 10.5 99 1012.8 17.4 NW 20.6 0.0 2.4
09:05 10.6 10.5 99 1013.0 14.5 S 20.6 0.0 2.4
09:06 10.6 10.5 99 1013.1 13.0 S 20.6 0.0 2.4
09:07 10.6 10.5 99 1013.1 13.6 WNW 20.6 0.0 2.4
09:08 10.6 10.5 99 1013.1 9.8 S 17.4 0.0 2.4
09:10 10.6 10.5 99 1013.2 13.6 WSW 17.4 0.0 2.4
09:11 10.7 10.6 99 1013.1 16.8 WSW 17.4 0.0 2.4
09:12 10.7 10.6 99 1013.1 15.2 NW 17.4 0.0 2.4
09:13 10.7 10.6 99 1013.3 16.8 SW 17.4 0.0 2.4
09:14 10.7 10.6 99 1013.3 17.4 S 17.4 0.0 2.4
09:15 10.8 10.7 99 1013.3 15.2 NW 17.4 0.0 2.4
09:16 10.8 10.7 99 1013.3 16.8 SW 17.4 0.0 2.4
09:17 10.8 10.7 99 1013.2 12.1 SW 17.4 0.0 2.4
09:18 10.8 10.7 99 1013.2 14.5 W 17.4 0.0 2.4
09:19 10.9 10.8 99 1013.2 16.8 SW 17.4 0.0 2.4
09:20 10.9 10.8 99 1013.3 16.8 W 17.4 0.0 2.4
09:21 10.9 10.6 98 1013.2 15.2 S 17.4 0.0 2.4
09:22 10.9 10.6 98 1013.4 13.0 SW 17.4 0.0 2.4
09:23 11.0 10.7 98 1013.4 15.2 NW 17.4 0.0 2.4
09:24 11.0 10.7 98 1013.4 15.9 WNW 17.4 0.0 2.4
09:26 11.1 10.8 98 1013.3 11.4 S 16.8 0.0 2.4
09:27 11.1 10.8 98 1013.4 14.5 SW 19.0 0.0 2.4
09:28 11.1 10.8 98 1013.3 13.0 WSW 19.0 0.0 2.4
09:29 11.2 10.9 98 1013.4 15.9 WSW 19.0 0.0 2.4
09:30 11.2 10.9 98 1013.5 17.4 SW 19.0 0.0 2.4
09:31 11.2 10.7 97 1013.5 13.0 NW 19.0 0.0 2.4
09:32 11.2 10.7 97 1013.7 13.0 SW 19.0 0.0 2.4
09:33 11.3 10.8 97 1013.6 16.8 SW 19.0 0.0 2.4
09:34 11.3 10.8 97 1013.5 19.0 SW 19.0 0.0 2.4
09:35 11.4 10.9 97 1013.6 16.8 W 19.0 0.0 2.4
09:36 11.4 10.9 97 1013.6 19.0 S 19.0 0.0 2.4
09:37 11.4 10.9 97 1013.5 9.8 SW 19.0 0.0 2.4
09:38 11.4 10.9 97 1013.5 15.2 NW 19.0 0.0 2.4
09:39 11.5 10.9 96 1013.3 19.7 SW 19.7 0.0 2.4
09:40 11.5 10.9 96 1013.5 16.8 SW 19.7 0.0 2.4
09:41 11.5 10.9 96 1013.5 13.0 W 19.7 0.0 2.4
09:43 11.7 11.1 96 1013.6 13.6 WSW 19.7 0.0 2.4
09:44 11.7 11.1 96 1013.6 12.1 S 19.7 0.0 2.4
09:45 11.7 10.9 95 1013.5 13.6 E 19.7 0.0 2.4
09:46 11.8 11.0 95 1013.5 15.2 SW 19.7 0.0 2.4
09:47 11.8 11.0 95 1013.5 10.7 SW 19.7 0.0 2.4
09:48 11.8 11.0 95 1013.6 13.6 SW 19.7 0.0 2.4
09:49 11.8 11.0 95 1013.7 15.2 SW 19.7 0.0 2.4
09:50 11.8 11.0 95 1013.7 15.2 SW 19.0 0.0 2.4
09:51 11.8 10.9 94 1013.7 11.4 SW 19.0 0.0 2.4
09:52 11.8 10.9 94 1013.7 9.8 SW 15.9 0.0 2.4
09:53 11.9 11.0 94 1013.7 13.0 WNW 15.9 0.0 2.4
09:54 11.9 11.0 94 1013.7 13.0 S 15.9 0.0 2.4
09:55 11.9 11.0 94 1013.8 16.8 SW 16.8 0.0 2.4
09:56 12.0 11.1 94 1013.8 19.0 SW 19.0 0.0 2.4
09:57 12.0 11.1 94 1013.7 17.4 SW 19.0 0.0 2.4
09:59 11.9 11.0 94 1013.9 15.9 W 20.6 0.0 2.4
10:00 11.9 11.0 94 1014.0 14.5 W 20.6 0.0 2.4
10:01 11.9 10.8 93 1014.3 14.5 SW 20.6 0.0 2.5
10:02 11.8 10.7 93 1014.1 10.7 SW 20.6 0.8 2.5
10:03 11.8 10.7 93 1014.1 16.8 W 20.6 0.8 2.5
10:04 11.8 10.7 93 1014.0 19.7 S 20.6 0.8 2.5
10:05 11.8 10.7 93 1013.9 15.9 SW 20.6 0.8 2.5
10:06 11.8 10.7 93 1014.1 10.7 SW 20.6 0.8 2.5
10:07 11.8 10.7 93 1014.0 11.4 N 20.6 0.0 2.5
10:08 11.8 10.7 93 1014.0 15.9 SW 19.7 0.0 2.5
10:09 11.8 10.7 93 1014.2 21.3 NW 21.3 0.0 2.5
10:10 11.8 10.7 93 1014.3 22.1 SW 22.1 0.0 2.5
10:11 11.9 10.8 93 1014.2 19.0 SW 22.1 0.0 2.5
10:12 11.9 10.8 93 1014.1 22.1 S 22.1 0.0 2.5
10:13 11.9 10.8 93 1014.1 19.7 N 22.1 0.0 2.5
10:14 11.9 10.8 93 1014.1 16.8 SW 22.1 0.0 2.5
10:16 12.0 10.9 93 1014.1 15.2 W 22.8 0.0 2.5
10:17 12.0 10.9 93 1014.3 15.2 SW 22.8 0.0 2.5
10:18 12.1 10.8 92 1014.1 22.1 SW 22.8 0.0 2.5
10:19 12.1 10.8 92 1014.1 17.4 NW 22.8 0.0 2.5
10:20 12.1 10.8 92 1014.2 19.7 NW 22.8 0.0 2.5
10:21 12.1 10.8 92 1014.2 13.0 SW 22.8 0.0 2.5
10:22 12.1 10.8 92 1014.1 13.6 SW 22.8 0.0 2.5
10:23 12.1 10.7 91 1014.2 12.1 W 22.8 0.0 2.5
10:24 12.2 10.8 91 1014.1 13.6 W 22.8 0.0 2.5
10:25 12.2 10.8 91 1014.2 9.8 NE 22.1 0.0 2.5
10:26 12.3 10.9 91 1014.1 15.9 WNW 22.1 0.0 2.5
10:27 12.3 10.9 91 1014.3 16.8 SW 22.1 0.0 2.5
10:28 12.3 10.9 91 1014.2 13.0 S 22.1 0.0 2.5
10:29 12.3 10.9 91 1014.0 15.9 NW 19.7 0.0 2.5
10:30 12.4 10.8 90 1014.2 19.0 SW 19.7 0.0 2.5
10:31 12.5 10.9 90 1014.2 13.0 NW 19.0 0.0 2.5
10:32 12.5 10.9 90 1014.2 10.7 SW 19.0 0.0 2.5
10:34 12.6 10.8 89 1014.5 14.5 SW 19.0 0.0 2.5
10:35 12.6 10.7 88 1014.3 16.8 SW 21.3 0.0 2.5
10:36 12.6 10.5 87 1014.2 15.2 SW 21.3 0.0 2.5
10:37 12.6 10.5 87 1014.4 15.2 W 21.3 0.0 2.5
10:38 12.7 10.4 86 1014.3 19.0 SW 21.3 0.0 2.5
10:39 12.7 10.4 86 1014.4 19.7 SW 21.3 0.0 2.5
10:40 12.7 10.4 86 1014.3 16.8 SW 21.3 0.0 2.5
10:41 12.8 10.5 86 1014.3 16.8 W 21.3 0.0 2.5
10:42 12.7 10.4 86 1014.4 21.3 SW 21.3 0.0 2.5
10:43 12.8 10.3 85 1014.5 15.2 S 21.3 0.0 2.5
10:44 12.8 10.5 86 1014.6 15.2 S 21.3 0.0 2.5
10:45 12.8 10.5 86 1014.6 22.1 NW 22.1 0.0 2.5
10:46 12.8 10.3 85 1014.7 22.8 WNW 22.8 0.0 2.5
10:47 12.9 10.4 85 1014.5 14.5 S 22.8 0.0 2.5
10:48 13.0 10.5 85 1014.4 15.2 S 22.8 0.0 2.5
10:50 13.0 10.4 84 1014.5 19.0 W 23.5 0.0 2.5
10:51 13.1 10.6 85 1014.5 19.0 SW 23.5 0.0 2.5
10:52 13.1 10.5 84 1014.6 24.4 S 24.4 0.0 2.5
10:53 13.1 10.3 83 1014.5 16.8 SW 24.4 0.0 2.5
10:54 13.1 10.1 82 1014.6 18.3 SW 24.4 0.0 2.5
10:55 13.2 10.4 83 1014.7 18.3 NW 24.4 0.0 2.5
10:56 13.2 10.2 82 1014.8 20.6 W 24.4 0.0 2.5
10:57 13.3 10.3 82 1014.9 22.8 SW 25.1 0.0 2.5
10:58 13.3 10.3 82 1014.7 19.0 SW 25.1 0.0 2.5
10:59 13.2 10.0 81 1014.8 20.6 SW 25.1 0.0 2.5
11:00 13.2 10.0 81 1014.9 15.9 SW 25.1 0.0 2.5
11:01 13.2 10.0 81 1015.0 15.9 SW 25.1 0.0 2.5
11:02 13.2 10.0 81 1014.9 23.5 SW 25.1 0.0 2.5
11:03 13.2 9.6 79 1014.9 22.1 SW 25.1 0.0 2.5
11:04 13.3 9.7 79 1014.9 19.0 S 25.1 0.0 2.5
11:05 13.3 9.7 79 1014.9 18.3 SW 25.1 0.0 2.5
11:06 13.3 9.5 78 1014.8 17.4 SW 25.1 0.0 2.5
11:07 13.4 9.8 79 1014.9 14.5 NW 25.1 0.0 2.5
11:08 13.5 10.1 80 1014.7 12.1 SW 23.5 0.0 2.5
11:09 13.6 10.2 80 1014.8 17.4 SW 23.5 0.0 2.5
11:11 13.7 10.1 79 1014.9 16.8 WSW 23.5 0.0 2.5
11:12 13.8 10.0 78 1014.9 19.7 SW 22.1 0.0 2.5
11:13 13.8 9.8 77 1015.0 27.3 NW 27.3 0.0 2.5
11:14 13.8 9.6 76 1014.9 21.3 SW 27.3 0.0 2.5
11:15 13.7 9.2 74 1014.9 21.3 NW 27.3 0.0 2.5
11:16 13.7 9.2 74 1014.8 19.0 SW 27.3 0.0 2.5
11:17 13.7 9.2 74 1014.9 19.7 WNW 27.3 0.0 2.5
11:18 13.8 9.5 75 1014.9 19.7 WNW 27.3 0.0 2.5
11:19 13.8 9.3 74 1014.8 21.3 SW 27.3 0.0 2.5
11:20 13.8 9.3 74 1015.0 19.7 SW 27.3 0.0 2.5
11:21 13.8 9.3 74 1015.0 22.1 SW 27.3 0.0 2.5
11:22 13.8 9.3 74 1015.0 22.1 SW 27.3 0.0 2.5
11:23 13.8 9.5 75 1015.2 15.9 SW 27.3 0.0 2.5
11:24 13.7 9.4 75 1015.2 15.2 SW 24.4 0.0 2.5
11:25 13.7 9.4 75 1015.2 17.4 NW 24.4 0.0 2.5
11:26 13.7 9.4 75 1015.4 19.0 WSW 24.4 0.0 2.5
11:27 13.5 9.2 75 1015.5 25.1 S 25.1 0.0 2.6
11:29 13.3 9.2 76 1015.6 21.3 SW 25.1 3.0 2.7
11:30 13.0 8.9 76 1015.5 22.1 SW 25.1 3.0 2.7
11:31 12.8 8.7 76 1015.6 12.1 SW 25.1 3.0 2.7
11:32 12.5 8.6 77 1015.6 12.1 NW 25.1 3.0 2.7
11:33 12.4 8.5 77 1015.7 15.9 SW 25.1 1.5 2.7
11:34 12.2 8.5 78 1015.6 13.0 SW 25.1 0.0 2.7
11:35 12.1 8.6 79 1015.5 19.0 SW 25.1 0.0 2.7
11:36 11.9 8.9 82 1015.5 16.8 W 25.1 0.0 2.7
11:37 11.9 9.3 84 1015.4 9.2 W 22.1 0.0 2.7
11:38 11.9 9.5 85 1015.7 15.2 SW 22.1 0.0 2.7
11:39 11.9 9.5 85 1015.6 15.2 SW 22.1 0.0 2.7
11:40 11.9 9.6 86 1015.7 13.6 SW 22.1 0.0 2.7
11:41 12.0 9.9 87 1015.6 15.2 SW 19.0 0.0 2.7
11:42 12.1 10.2 88 1015.6 15.9 WSW 19.0 0.0 2.7
11:43 12.2 10.3 88 1015.5 19.0 S 19.0 0.0 2.7
11:44 12.2 10.3 88 1015.5 19.0 SW 19.0 0.0 2.7
11:45 12.2 10.3 88 1015.6 17.4 SW 19.0 0.0 2.7
11:47 12.4 10.5 88 1015.5 19.0 SW 19.0 0.0 2.7
11:48 12.4 10.5 88 1015.5 19.0 SW 19.0 0.0 2.7
11:49 12.5 10.6 88 1015.4 11.4 SW 19.0 0.0 2.7
11:50 12.6 10.7 88 1015.6 15.9 N 19.0 0.0 2.7
11:51 12.6 10.7 88 1015.3 22.8 NW 22.8 0.0 2.8
11:52 12.7 10.4 86 1015.5 21.3 W 22.8 0.8 2.8
11:53 12.8 10.5 86 1015.7 20.6 SW 22.8 0.8 2.8
11:54 12.8 10.5 86 1015.6 18.3 SW 22.8 0.8 2.8
11:55 12.9 10.6 86 1015.7 12.1 S 22.8 0.8 2.8
11:56 13.0 10.5 85 1015.6 19.7 NW 22.8 0.8 2.8
11:57 13.0 10.5 85 1015.6 19.7 NW 22.8 0.0 2.8
11:58 13.0 10.5 85 1015.7 15.2 NW 22.8 0.0 2.8
11:59 13.1 10.5 84 1015.5 18.3 WSW 22.8 0.0 2.8
12:00 13.0 10.4 84 1015.4 16.8 WSW 22.8 0.0 2.8
12:01 13.3 10.7 84 1015.5 21.3 S 22.8 0.0 2.8
12:02 13.3 10.7 84 1015.5 18.3 SW 21.3 0.0 2.8
12:03 13.4 10.8 84 1015.5 15.9 W 21.3 0.0 2.8
12:04 13.4 10.6 83 1015.7 19.7 SW 21.3 0.0 2.8
12:05 13.5 10.7 83 1015.7 20.6 SW 21.3 0.0 2.8
12:06 13.5 10.5 82 1015.5 22.8 SW 22.8 0.0 2.8
12:07 13.6 10.6 82 1015.7 19.7 SW 22.8 0.0 2.8
12:08 13.6 10.4 81 1015.7 21.3 SW 22.8 0.0 2.8
12:09 13.7 10.5 81 1015.7 19.0 SW 22.8 0.0 2.8
12:10 13.7 10.7 82 1015.6 13.6 N 22.8 0.0 2.8
12:12 13.9 10.7 81 1015.6 19.7 SW 22.8 0.0 2.8
12:13 13.9 10.5 80 1015.7 17.4 NNE 22.8 0.0 2.8
12:14 13.9 10.5 80 1015.7 21.3 SW 22.8 0.0 2.8
12:15 13.9 10.5 80 1015.7 18.3 NW 22.8 0.0 2.8
12:16 13.9 10.5 80 1015.7 19.0 SW 21.3 0.0 2.8
12:17 13.9 10.5 80 1015.7 16.8 N 21.3 0.0 2.8
12:18 13.9 10.5 80 1015.6 13.6 W 21.3 0.0 2.8
12:19 13.9 10.7 81 1015.6 15.9 W 21.3 0.0 2.8
12:20 14.0 10.4 79 1015.8 19.7 SW 21.3 0.0 2.8
12:21 14.0 10.6 80 1015.7 17.4 SW 21.3 0.0 2.8
12:22 14.0 10.6 80 1015.7 17.4 SW 21.3 0.0 2.8
12:23 14.0 10.4 79 1015.8 22.1 SW 22.1 0.0 2.8
12:24 14.0 10.4 79 1016.0 19.0 WSW 22.1 0.0 2.8
12:25 14.0 10.4 79 1016.0 16.8 NW 22.1 0.0 2.8
12:26 14.0 10.4 79 1015.9 14.5 SW 22.1 0.0 2.8
12:27 14.0 10.4 79 1015.7 14.5 SW 22.1 0.0 2.8
12:28 14.0 10.4 79 1015.8 15.9 SW 22.1 0.0 2.8
12:30 14.1 10.3 78 1015.9 18.3 SW 22.1 0.0 2.8
12:31 14.2 10.6 79 1015.9 16.8 SW 22.1 0.0 2.8
12:32 14.2 10.4 78 1015.8 19.0 SW 22.1 0.0 2.8
12:33 14.2 10.2 77 1016.0 17.4 SW 19.0 0.0 2.8
12:34 14.2 10.4 78 1015.9 15.9 S 19.0 0.0 2.8
12:35 14.2 10.4 78 1016.0 16.8 NW 19.0 0.0 2.8
12:36 14.4 10.8 79 1015.9 12.1 SW 19.0 0.0 2.8
12:37 14.5 10.9 79 1015.9 15.9 SW 19.0 0.0 2.8
12:38 14.6 10.8 78 1016.0 21.3 S 21.3 0.0 2.8
12:39 14.6 10.6 77 1015.7 21.3 NW 21.3 0.0 2.8
12:40 14.6 10.6 77 1016.0 21.3 SW 21.3 0.0 2.8
12:41 14.6 10.6 77 1016.0 21.3 SW 21.3 0.0 2.8
12:42 14.5 10.5 77 1016.0 17.4 W 21.3 0.0 2.8
12:43 14.4 10.2 76 1016.0 19.0 SW 21.3 0.0 2.8
12:44 14.4 10.2 76 1016.0 19.7 SW 21.3 0.0 2.8
12:45 14.3 10.1 76 1016.0 16.8 W 21.3 0.0 2.8
12:46 14.3 10.1 76 1016.0 16.8 W 21.3 0.0 2.8
12:48 14.1 9.9 76 1016.0 22.1 W 26.6 0.0 2.8
12:49 14.1 9.7 75 1016.0 16.8 W 26.6 0.0 2.8
12:50 14.0 9.8 76 1016.1 15.9 W 26.6 0.0 2.8
12:51 14.0 9.6 75 1016.0 16.8 NW 26.6 0.0 2.8
12:52 14.0 10.0 77 1016.0 19.0 SW 26.6 0.0 2.8
12:53 14.1 10.1 77 1016.0 17.4 SW 26.6 0.0 2.8
12:54 14.2 10.0 76 1016.0 19.0 SW 26.6 0.0 2.8
12:55 14.4 10.6 78 1016.1 19.0 SW 26.6 0.0 2.8
12:56 14.6 10.8 78 1015.9 13.0 WSW 26.6 0.0 2.8
12:57 14.6 10.8 78 1015.9 13.0 WSW 26.6 0.0 2.8
12:58 14.7 10.9 78 1016.0 12.1 WSW 22.1 0.0 2.8
12:59 14.8 10.6 76 1016.1 16.8 WSW 19.0 0.0 2.8
13:00 14.9 10.7 76 1016.0 19.7 W 19.7 0.0 2.8
13:01 14.9 10.7 76 1016.1 17.4 S 19.7 0.0 2.8
13:02 14.9 10.5 75 1015.9 22.1 S 22.1 0.0 2.8
13:03 14.8 10.2 74 1016.1 15.9 SW 22.1 0.0 2.8
13:04 14.8 10.4 75 1016.2 12.1 SW 22.1 0.0 2.8
13:05 14.8 10.6 76 1016.2 16.8 NW 22.1 0.0 2.8
13:06 14.8 10.4 75 1016.3 19.7 SW 22.1 0.0 2.8
13:07 14.8 10.2 74 1016.3 21.3 SW 25.9 0.0 2.8
13:08 14.8 9.8 72 1016.3 21.3 SW 25.9 0.0 2.8
13:09 14.7 9.7 72 1016.3 17.4 SW 25.9 0.0 2.8
13:10 14.7 9.7 72 1016.3 20.6 NW 25.9 0.0 2.8
13:12 14.5 9.5 72 1016.6 22.8 W 25.9 0.0 2.8
13:13 14.4 9.2 71 1016.3 21.3 WSW 25.9 0.0 2.8
13:14 14.4 9.4 72 1016.5 22.8 WSW 25.9 0.0 2.8
13:15 14.3 9.3 72 1016.2 25.1 SW 25.9 0.0 2.8
13:16 14.3 9.3 72 1016.4 19.7 WSW 25.9 0.0 2.8
13:17 14.3 9.3 72 1016.5 16.8 SW 25.1 0.0 2.8
13:18 14.3 9.3 72 1016.6 20.6 SW 25.1 0.0 2.8
13:19 14.3 9.1 71 1016.5 23.5 SW 25.1 0.0 2.8
13:20 14.2 9.2 72 1016.3 20.6 SW 25.1 0.0 2.8
13:21 14.2 9.2 72 1016.6 19.0 SW 25.1 0.0 2.8
13:22 14.1 9.1 72 1016.5 16.8 NW 25.1 0.0 2.8
13:23 14.1 9.1 72 1016.7 14.5 W 25.1 0.0 2.8
13:24 14.0 9.0 72 1016.5 22.8 SW 25.1 0.0 2.8
13:25 14.0 9.0 72 1016.4 15.9 SW 25.1 0.0 2.8
13:26 14.0 9.2 73 1016.5 18.3 SSW 23.5 0.0 2.8
13:27 14.1 9.3 73 1016.5 19.0 NW 23.5 0.0 2.8
13:28 14.1 9.3 73 1016.5 25.1 WSW 25.1 0.0 2.8
13:29 14.1 9.3 73 1016.5 20.6 WSW 25.1 0.0 2.8
13:30 14.1 9.3 73 1016.5 19.0 SW 25.1 0.0 2.8
13:31 14.2 9.6 74 1016.4 13.0 NW 25.1 0.0 2.8
13:32 14.4 9.6 73 1016.4 16.8 NW 25.1 0.0 2.8
13:33 14.5 9.9 74 1016.4 23.5 SW 25.1 0.0 2.8
13:34 14.5 9.9 74 1016.4 17.4 SW 25.1 0.0 2.8
13:35 14.5 9.7 73 1016.5 15.9 SW 25.1 0.0 2.8
13:36 14.5 9.7 73 1016.6 22.8 SW 25.1 0.0 2.8
13:37 14.5 9.7 73 1016.6 17.4 SW 25.1 0.0 2.8
13:38 14.5 9.5 72 1016.6 13.6 SW 23.5 0.0 2.8
13:39 14.4 9.4 72 1016.6 17.4 SW 23.5 0.0 2.8
13:40 14.4 9.4 72 1016.6 16.8 SW 23.5 0.0 2.8
13:41 14.3 9.3 72 1016.7 18.3 NW 23.5 0.0 2.8
13:42 14.3 9.3 72 1016.5 16.8 SW 23.5 0.0 2.8
13:43 14.2 9.2 72 1016.7 23.5 W 23.5 0.0 2.8
13:44 14.2 9.2 72 1016.7 20.6 W 23.5 0.0 2.8
13:45 14.1 9.1 72 1016.7 19.0 SW 23.5 0.0 2.8
13:46 14.0 9.0 72 1016.6 13.6 SW 23.5 0.0 2.8
13:48 14.1 9.3 73 1016.7 12.1 NW 23.5 0.0 2.8
13:49 14.2 9.4 73 1016.7 18.3 NW 23.5 0.0 2.8
13:50 14.2 9.4 73 1016.8 15.9 NW 23.5 0.0 2.8
13:51 14.2 9.4 73 1016.7 18.3 SW 23.5 0.0 2.8
13:52 14.2 9.4 73 1016.8 13.0 SW 23.5 0.0 2.8
13:53 14.2 9.4 73 1016.6 19.0 W 20.6 0.0 2.8
13:54 14.2 9.4 73 1016.8 15.9 W 19.0 0.0 2.8
13:55 14.2 9.4 73 1016.8 16.8 SW 19.0 0.0 2.8
13:56 14.2 9.2 72 1016.8 19.0 NNE 25.1 0.0 2.8
13:57 14.2 9.2 72 1016.8 19.0 NNE 25.1 0.0 2.8
13:58 14.2 9.2 72 1016.9 19.0 SW 25.1 0.0 2.8
13:59 14.2 9.2 72 1016.8 12.1 W 25.1 0.0 2.8
14:00 14.1 9.1 72 1016.8 15.2 W 25.1 0.0 2.8
14:01 14.1 9.1 72 1016.9 16.8 SW 25.1 0.0 2.8
14:02 14.0 9.0 72 1016.9 19.0 W 25.1 0.0 2.8
14:03 14.0 9.0 72 1016.8 19.7 SW 25.1 0.0 2.8
14:04 14.0 9.0 72 1016.9 25.9 SW 25.9 0.0 2.8
14:05 14.0 9.2 73 1017.0 13.6 WNW 25.9 0.0 2.8
14:06 14.1 9.3 73 1016.8 14.5 NW 25.9 0.0 2.8
14:07 14.1 9.3 73 1016.7 15.9 W 25.9 0.0 2.8
14:08 14.2 9.4 73 1016.8 21.3 SW 26.6 0.0 2.8
14:09 14.3 9.5 73 1017.1 17.4 SW 26.6 0.0 2.8
14:10 14.3 9.5 73 1017.1 17.4 SW 26.6 0.0 2.8
14:11 14.3 9.3 72 1017.0 15.2 SW 26.6 0.0 2.8
14:12 14.3 9.1 71 1017.1 24.4 SW 26.6 0.0 2.8
14:13 14.3 9.1 71 1017.2 20.6 SW 26.6 0.0 2.8
14:14 14.3 9.1 71 1017.3 18.3 WSW 26.6 0.0 2.8
14:15 14.3 9.1 71 1017.1 13.0 SW 26.6 0.0 2.8
14:16 14.2 9.0 71 1017.2 24.4 SW 26.6 0.0 2.8
14:17 14.2 8.8 70 1017.3 25.9 SW 26.6 0.0 2.8
14:18 14.2 9.0 71 1017.0 18.3 W 25.9 0.0 2.8
14:19 14.2 9.0 71 1017.0 14.5 W 25.9 0.0 2.8
14:20 14.3 9.1 71 1017.1 14.5 SW 25.9 0.0 2.8
14:21 14.3 9.1 71 1017.1 21.3 NW 25.9 0.0 2.8
14:22 14.3 9.1 71 1017.0 17.4 SW 25.9 0.0 2.8
14:23 14.3 9.1 71 1017.1 16.8 SW 25.9 0.0 2.8
14:24 14.3 8.9 70 1017.1 15.9 SW 25.9 0.0 2.8
14:25 14.4 9.0 70 1017.3 14.5 NW 25.9 0.0 2.8
14:26 14.4 9.2 71 1017.3 22.1 S 25.9 0.0 2.8
14:27 14.4 9.2 71 1017.3 20.6 SW 22.1 0.0 2.8
14:28 14.3 8.9 70 1017.2 16.8 SW 22.1 0.0 2.8
14:29 14.3 8.9 70 1017.3 13.0 S 22.1 0.0 2.8
14:30 14.3 9.1 71 1017.2 19.0 W 22.1 0.0 2.8
14:31 14.3 9.1 71 1017.3 18.3 N 22.1 0.0 2.8
14:32 14.4 9.4 72 1017.2 15.9 WSW 22.1 0.0 2.8
14:33 14.6 9.6 72 1017.2 15.2 NW 22.1 0.0 2.8
14:34 14.7 9.7 72 1017.2 12.1 SW 22.1 0.0 2.8
14:35 14.8 9.8 72 1017.2 16.8 SW 22.1 0.0 2.8
14:36 14.9 9.9 72 1017.3 15.2 SW 22.1 0.0 2.8
14:37 15.0 10.0 72 1017.2 22.8 NW 22.8 0.0 2.8
14:38 15.2 9.8 70 1017.3 17.4 WSW 24.4 0.0 2.8
14:39 15.2 9.8 70 1017.3 21.3 SW 24.4 0.0 2.8
14:40 15.2 9.8 70 1017.3 19.0 SW 24.4 0.0 2.8
14:41 15.2 9.8 70 1017.4 13.6 NW 24.4 0.0 2.8
14:42 15.1 9.7 70 1017.4 19.7 W 24.4 0.0 2.8
14:43 15.1 9.7 70 1017.6 16.8 NW 24.4 0.0 2.8
14:44 15.0 9.4 69 1017.3 14.5 SW 24.4 0.0 2.8
14:45 14.9 9.3 69 1017.3 17.4 SW 24.4 0.0 2.8
14:46 14.9 9.3 69 1017.4 18.3 SW 24.4 0.0 2.8
14:47 14.9 9.5 70 1017.3 20.6 S 24.4 0.0 2.8
14:48 15.0 9.8 71 1017.3 14.5 SW 21.3 0.0 2.8
14:49 15.0 9.8 71 1017.4 13.0 NW 20.6 0.0 2.8
14:50 15.0 9.8 71 1017.4 17.4 SW 20.6 0.0 2.8
14:51 15.0 9.8 71 1017.4 22.8 SW 22.8 0.0 2.8
14:52 15.0 9.6 70 1017.4 19.7 S 22.8 0.0 2.8
14:53 15.0 9.8 71 1017.4 13.6 SW 22.8 0.0 2.8
14:54 14.9 9.7 71 1017.5 15.2 W 22.8 0.0 2.8
14:55 14.8 9.6 71 1017.5 12.1 SW 22.8 0.0 2.8
14:56 14.8 9.6 71 1017.4 10.7 SW 22.8 0.0 2.8
14:57 14.7 9.5 71 1017.5 12.1 SW 22.8 0.0 2.8
14:58 14.6 9.6 72 1017.6 13.6 WSW 22.8 0.0 2.8
14:59 14.5 9.5 72 1017.4 14.5 SW 22.8 0.0 2.8
15:01 14.4 9.8 74 1017.5 16.8 S 22.8 0.0 2.8
15:02 14.3 9.9 75 1017.4 13.6 SW 17.4 0.0 2.8
15:03 14.3 9.9 75 1017.4 11.4 W 17.4 0.0 2.8
15:04 14.4 10.2 76 1017.4 18.3 SW 18.3 0.0 2.8
15:05 14.5 10.3 76 1017.5 16.8 SW 18.3 0.0 2.8
15:06 14.5 9.9 74 1017.4 25.1 S 25.1 0.0 2.8
15:07 14.5 9.9 74 1017.4 19.0 SW 25.1 0.0 2.8
15:08 14.5 9.7 73 1017.5 13.6 S 25.1 0.0 2.8
15:09 14.6 9.8 73 1017.6 14.5 SW 25.1 0.0 2.8
15:10 14.6 9.8 73 1017.7 14.5 SW 25.1 0.0 2.8
15:11 14.6 9.4 71 1017.7 17.4 NW 25.1 0.0 2.8
15:12 14.6 9.2 70 1017.7 15.9 SW 25.1 0.0 2.8
15:13 14.6 9.2 70 1017.8 16.8 SW 25.1 0.0 2.8
15:14 14.6 9.2 70 1017.8 15.9 NW 25.1 0.0 2.8
15:15 14.7 9.3 70 1017.8 17.4 SW 25.1 0.0 2.8
15:16 14.7 9.3 70 1017.8 17.4 SW 25.1 0.0 2.8
15:17 14.7 9.3 70 1017.7 19.7 N 19.7 0.0 2.8
15:18 14.8 9.4 70 1017.8 16.8 WNW 19.7 0.0 2.8
15:19 14.8 9.2 69 1017.8 22.8 NW 22.8 0.0 2.8
15:20 14.8 9.4 70 1017.8 17.4 SW 22.8 0.0 2.8
15:21 14.8 9.4 70 1017.8 17.4 WNW 22.8 0.0 2.8
15:22 14.9 9.5 70 1017.8 15.9 N 22.8 0.0 2.8
15:23 14.9 9.5 70 1017.8 11.4 SW 22.8 0.0 2.8
15:24 15.0 9.6 70 1017.8 14.5 NW 22.8 0.0 2.8
15:25 14.9 9.3 69 1017.8 13.6 W 22.8 0.0 2.8
15:26 14.9 9.5 70 1017.8 13.6 SW 22.8 0.0 2.8
15:27 14.9 9.3 69 1017.8 17.4 SW 22.8 0.0 2.8
15:28 14.9 9.5 70 1017.6 16.8 WNW 22.8 0.0 2.8
15:29 14.9 9.5 70 1017.8 17.4 WSW 21.3 0.0 2.8
15:30 14.9 9.5 70 1017.7 11.4 SW 21.3 0.0 2.8
15:31 15.0 9.8 71 1017.8 11.4 W 21.3 0.0 2.8
15:32 15.0 9.8 71 1017.7 8.3 WNW 21.3 0.0 2.8
15:33 15.0 9.8 71 1017.6 15.9 NW 21.3 0.0 2.8
15:34 15.0 9.8 71 1017.8 16.8 WSW 21.3 0.0 2.8
15:35 15.0 9.8 71 1017.7 13.6 SW 18.3 0.0 2.8
15:36 15.0 9.8 71 1017.8 13.6 WSW 18.3 0.0 2.8
15:37 15.0 9.6 70 1017.8 13.6 SW 18.3 0.0 2.8
15:38 15.0 9.6 70 1017.8 13.0 SW 17.4 0.0 2.8
15:39 15.0 9.8 71 1017.8 13.0 SW 17.4 0.0 2.8
15:40 15.0 9.6 70 1017.8 15.9 SW 16.8 0.0 2.8
15:41 14.9 9.5 70 1017.7 13.6 S 16.8 0.0 2.8
15:42 14.9 9.5 70 1017.9 14.5 SW 17.4 0.0 2.8
15:43 15.0 9.6 70 1017.9 15.2 SW 17.4 0.0 2.8
15:44 15.0 9.6 70 1018.0 18.3 SW 18.3 0.0 2.8
15:45 15.1 9.7 70 1017.8 15.2 SW 18.3 0.0 2.8
15:46 15.1 9.7 70 1017.8 14.5 SW 18.3 0.0 2.8
15:47 15.1 9.7 70 1017.9 15.9 SW 18.3 0.0 2.8
15:48 15.1 9.7 70 1017.8 14.5 WNW 18.3 0.0 2.8
15:49 15.0 9.6 70 1017.9 14.5 SW 18.3 0.0 2.8
15:51 15.0 9.6 70 1017.9 13.6 SW 18.3 0.0 2.8
15:52 14.9 9.5 70 1018.0 12.1 SW 18.3 0.0 2.8
15:53 14.9 9.5 70 1017.9 12.1 S 18.3 0.0 2.8
15:54 14.8 9.4 70 1018.0 13.0 SW 18.3 0.0 2.8
15:55 14.7 9.3 70 1017.9 13.6 SW 15.9 0.0 2.8
15:56 14.7 9.3 70 1017.9 13.6 NW 15.9 0.0 2.8
15:57 14.7 9.3 70 1017.7 13.6 NW 15.9 0.0 2.8
15:58 14.7 9.3 70 1017.8 13.6 SW 15.9 0.0 2.8
15:59 14.7 9.5 71 1017.8 10.7 W 15.2 0.0 2.8
16:00 14.8 9.6 71 1017.6 10.7 SW 15.2 0.0 2.8
16:01 14.8 9.6 71 1017.8 12.1 SW 15.2 0.0 2.8
16:03 14.9 9.9 72 1017.9 9.8 NW 15.2 0.0 2.8
16:04 14.9 9.9 72 1017.8 13.0 SW 15.2 0.0 2.8
16:05 14.9 9.7 71 1017.8 9.2 S 15.2 0.0 2.8
16:06 15.0 10.0 72 1017.9 8.3 W 15.2 0.0 2.8
16:07 15.0 10.0 72 1017.9 10.7 S 15.2 0.0 2.8
16:08 15.0 10.0 72 1017.8 17.4 S 17.4 0.0 2.8
16:09 14.9 9.7 71 1018.1 18.3 SW 18.3 0.0 2.8
16:10 14.9 9.7 71 1017.9 15.9 SW 18.3 0.0 2.8
16:11 14.9 9.7 71 1017.9 15.9 SW 18.3 0.0 2.8
16:12 14.9 9.7 71 1018.1 15.9 SW 18.3 0.0 2.8
16:13 14.7 9.5 71 1017.9 13.6 WSW 18.3 0.0 2.8
16:14 14.6 9.4 71 1018.0 9.8 SW 18.3 0.0 2.8
16:15 14.5 9.3 71 1017.8 13.0 S 18.3 0.0 2.8
16:16 14.5 9.1 70 1017.9 16.8 SW 18.3 0.0 2.8
16:17 14.5 9.1 70 1018.0 13.6 SW 18.3 0.0 2.8
16:18 14.5 9.3 71 1017.9 19.0 SW 19.0 0.0 2.8
16:19 14.6 9.4 71 1017.9 13.0 SW 19.0 0.0 2.8
16:20 14.6 9.4 71 1017.8 13.6 SW 19.0 0.0 2.8
16:22 14.6 9.4 71 1017.9 11.4 S 19.0 0.0 2.8
16:23 14.6 9.4 71 1017.9 13.6 SW 19.0 0.0 2.8
16:24 14.6 9.4 71 1017.9 16.8 SW 19.0 0.0 2.8
16:25 14.6 9.4 71 1018.1 12.1 NW 19.0 0.0 2.8
16:26 14.5 9.3 71 1018.1 13.6 SW 19.0 0.0 2.8
16:27 14.6 9.4 71 1018.1 13.6 SW 19.0 0.0 2.8
16:28 14.5 9.3 71 1018.0 14.5 W 19.0 0.0 2.8
16:29 14.5 9.3 71 1018.2 15.2 SW 16.8 0.0 2.8
16:30 14.5 9.3 71 1018.4 15.9 SW 16.8 0.0 2.8
16:31 14.4 9.2 71 1018.4 13.6 SW 16.8 0.0 2.8
16:32 14.4 9.4 72 1018.4 13.6 N 16.8 0.0 2.8
16:33 14.4 9.4 72 1018.5 13.0 NW 16.8 0.0 2.8
16:34 14.5 9.5 72 1018.5 10.7 NW 15.9 0.0 2.8
16:35 14.5 9.5 72 1018.4 17.4 WNW 17.4 0.0 2.8
16:36 14.5 9.5 72 1018.3 15.9 W 17.4 0.0 2.8
16:37 14.5 9.5 72 1018.5 15.2 SW 17.4 0.0 2.8
16:38 14.5 9.5 72 1018.5 13.6 SW 17.4 0.0 2.8
16:39 14.5 9.5 72 1018.4 14.5 SW 17.4 0.0 2.8
16:41 14.5 9.5 72 1018.4 13.0 SW 17.4 0.0 2.8
16:42 14.4 9.4 72 1018.4 14.5 NW 17.4 0.0 2.8
16:43 14.4 9.4 72 1018.4 15.9 W 17.4 0.0 2.8
16:44 14.4 9.4 72 1018.3 13.0 W 17.4 0.0 2.8
16:45 14.3 9.3 72 1018.5 11.4 S 17.4 0.0 2.8
16:46 14.3 9.3 72 1018.5 11.4 W 15.9 0.0 2.8
16:47 14.3 9.3 72 1018.6 15.2 S 15.9 0.0 2.8
16:48 14.3 9.3 72 1018.5 16.8 SW 16.8 0.0 2.8
16:49 14.2 9.4 73 1018.5 10.7 WSW 16.8 0.0 2.8
16:50 14.2 9.4 73 1018.5 15.2 SW 16.8 0.0 2.8
16:51 14.2 9.4 73 1018.6 11.4 SW 16.8 0.0 2.8
16:52 14.2 9.4 73 1018.5 12.1 WSW 16.8 0.0 2.8
16:53 14.1 9.3 73 1018.6 13.0 SW 16.8 0.0 2.8
16:54 14.1 9.3 73 1018.6 13.6 W 16.8 0.0 2.8
16:55 14.1 9.3 73 1018.4 13.6 W 16.8 0.0 2.8
16:56 14.1 9.5 74 1018.7 10.7 W 16.8 0.0 2.8
16:57 14.1 9.5 74 1018.6 10.7 SW 16.8 0.0 2.8
16:59 14.1 9.5 74 1018.5 13.0 W 15.2 0.0 2.8
17:00 14.1 9.3 73 1018.7 9.8 W 15.2 0.0 2.8
17:01 14.0 9.2 73 1018.6 13.0 NW 15.2 0.0 2.8
17:02 14.0 9.2 73 1018.6 13.6 NW 13.6 0.0 2.8
17:03 14.0 9.2 73 1018.6 13.6 SW 13.6 0.0 2.8
17:04 14.0 9.0 72 1018.5 10.7 N 13.6 0.0 2.8
17:05 14.0 9.0 72 1018.5 15.9 WNW 15.9 0.0 2.8
17:06 14.0 9.0 72 1018.8 13.0 SW 15.9 0.0 2.8
17:07 14.0 9.0 72 1018.7 10.7 WSW 15.9 0.0 2.8
17:09 13.9 8.9 72 1018.7 9.8 W 15.9 0.0 2.8
17:10 13.9 8.9 72 1018.7 9.8 SW 15.9 0.0 2.8
17:11 13.9 8.9 72 1018.6 9.8 SW 15.9 0.0 2.8
17:12 13.9 8.9 72 1018.6 9.8 SW 15.9 0.0 2.8
17:13 13.9 8.9 72 1018.8 13.6 SW 15.9 0.0 2.8
17:14 13.9 8.9 72 1018.8 14.5 SW 15.9 0.0 2.8
17:15 13.9 8.9 72 1018.8 9.8 W 14.5 0.0 2.8
17:16 13.9 8.9 72 1018.7 12.1 SW 14.5 0.0 2.8
17:17 13.9 8.9 72 1018.8 15.2 SW 15.2 0.0 2.8
17:18 13.8 8.8 72 1018.7 15.2 SW 15.2 0.0 2.8
17:19 13.8 8.8 72 1018.7 14.5 SW 15.2 0.0 2.8
17:20 13.8 8.8 72 1018.6 8.3 WSW 15.2 0.0 2.8
17:21 13.8 8.8 72 1018.7 11.4 WSW 15.2 0.0 2.8
17:22 13.7 8.7 72 1018.8 13.0 W 15.2 0.0 2.8
17:24 13.7 8.7 72 1018.6 13.0 SW 15.2 0.0 2.8
17:25 13.7 8.7 72 1018.8 11.4 W 15.2 0.0 2.8
17:26 13.7 8.7 72 1018.8 8.3 W 15.2 0.0 2.8
17:27 13.6 8.7 72 1018.7 10.7 SW 15.2 0.0 2.8
17:28 13.6 8.7 72 1018.8 7.6 SW 15.2 0.0 2.8
17:29 13.6 8.7 72 1018.7 9.2 NW 15.2 0.0 2.8
17:30 13.6 8.7 72 1018.7 8.3 SW 13.0 0.0 2.8
17:31 13.6 8.9 73 1018.8 12.1 SW 13.0 0.0 2.8
17:32 13.6 8.9 73 1018.9 11.4 SW 13.0 0.0 2.8
17:33 13.6 8.9 73 1018.8 17.4 SSW 17.4 0.0 2.8
17:34 13.5 8.8 73 1018.8 12.1 SW 18.3 0.0 2.8
17:35 13.5 8.8 73 1018.8 10.7 W 18.3 0.0 2.8
17:36 13.5 8.8 73 1018.8 11.4 SW 18.3 0.0 2.8
17:37 13.5 8.8 73 1018.8 8.3 W 18.3 0.0 2.8
17:38 13.4 8.7 73 1018.8 8.3 SW 18.3 0.0 2.8
17:39 13.4 8.7 73 1018.8 9.8 W 18.3 0.0 2.8
17:40 13.4 8.7 73 1018.9 11.4 SW 18.3 0.0 2.8
17:41 13.4 8.7 73 1018.8 14.5 SW 18.3 0.0 2.8
17:43 13.4 8.7 73 1018.8 16.8 W 18.3 0.0 2.8
17:44 13.4 8.7 73 1018.9 15.2 SW 18.3 0.0 2.8
17:45 13.4 8.7 73 1018.9 15.9 W 16.8 0.0 2.8
17:46 13.3 8.6 73 1018.9 13.0 SW 16.8 0.0 2.8
17:47 13.3 8.8 74 1018.9 9.8 WSW 16.8 0.0 2.8
17:48 13.3 8.8 74 1018.9 14.5 SW 16.8 0.0 2.8
17:49 13.3 8.8 74 1019.0 12.1 SW 16.8 0.0 2.8
17:50 13.3 8.8 74 1018.8 14.5 NW 16.8 0.0 2.8
17:51 13.3 8.8 74 1019.0 12.1 NW 16.8 0.0 2.8
17:52 13.2 8.7 74 1018.8 13.6 SW 16.8 0.0 2.8
17:53 13.2 8.7 74 1018.9 13.6 NW 15.9 0.0 2.8
17:54 13.2 8.7 74 1019.0 14.5 S 15.9 0.0 2.8
17:55 13.2 8.7 74 1018.8 13.6 SW 14.5 0.0 2.8
17:56 13.2 8.7 74 1019.0 14.5 S 14.5 0.0 2.8
17:57 13.2 8.7 74 1018.9 10.7 WSW 14.5 0.0 2.8
17:58 13.2 8.7 74 1019.0 13.0 SW 14.5 0.0 2.8
17:59 13.2 8.7 74 1019.0 15.2 SW 15.2 0.0 2.8
18:00 13.2 8.7 74 1019.0 15.2 SW 15.2 0.0 2.8
18:02 13.1 8.6 74 1019.1 9.8 SW 15.2 0.0 2.8
18:03 13.1 8.6 74 1019.0 9.2 SW 15.2 0.0 2.8
18:04 13.1 8.6 74 1019.1 10.7 SW 15.2 0.0 2.8
18:05 13.1 8.6 74 1019.2 14.5 SW 15.2 0.0 2.8
18:06 13.1 8.6 74 1019.1 10.7 SW 15.2 0.0 2.8
18:07 13.1 8.6 74 1019.0 9.8 SW 15.2 0.0 2.8
18:08 13.1 8.6 74 1019.1 10.7 W 15.2 0.0 2.8
18:09 13.1 8.6 74 1019.0 10.7 S 15.2 0.0 2.8
18:10 13.0 8.5 74 1019.1 11.4 NW 14.5 0.0 2.8
18:11 13.0 8.5 74 1019.1 11.4 NW 14.5 0.0 2.8
18:12 13.0 8.7 75 1019.2 9.8 SW 14.5 0.0 2.8
18:13 13.0 8.7 75 1019.1 8.3 NW 14.5 0.0 2.8
18:14 13.0 8.7 75 1019.2 6.0 SW 14.5 0.0 2.8
18:15 12.9 8.6 75 1019.2 13.6 SW 13.6 0.0 2.8
18:16 12.9 8.6 75 1019.1 11.4 SW 13.6 0.0 2.8
18:17 12.9 8.6 75 1019.1 12.1 SW 13.6 0.0 2.8
18:18 12.9 8.6 75 1019.1 10.7 SW 13.6 0.0 2.8
18:19 12.9 8.6 75 1019.1 9.8 NW 13.6 0.0 2.8
18:21 12.9 8.6 75 1019.0 11.4 NW 13.6 0.0 2.8
18:22 12.8 8.5 75 1019.0 8.3 W 13.6 0.0 2.8
18:23 12.9 8.8 76 1019.1 8.3 WSW 13.6 0.0 2.8
18:24 12.8 8.5 75 1019.1 6.0 SW 13.6 0.0 2.8
18:25 12.8 8.7 76 1019.0 7.6 W 13.6 0.0 2.8
18:26 12.8 8.7 76 1019.0 8.3 SW 12.1 0.0 2.8
18:27 12.8 8.7 76 1019.0 9.2 SW 12.1 0.0 2.8
18:28 12.8 8.7 76 1019.1 7.6 W 11.4 0.0 2.8
18:29 12.7 8.6 76 1019.0 9.2 SW 11.4 0.0 2.8
18:30 12.7 8.6 76 1019.1 10.7 SW 11.4 0.0 2.8
18:31 12.7 8.6 76 1018.9 7.6 W 10.7 0.0 2.8
18:32 12.7 8.6 76 1019.2 11.4 W 11.4 0.0 2.8
18:33 12.7 8.6 76 1019.3 6.9 SW 11.4 0.0 2.8
18:34 12.6 8.5 76 1019.1 9.8 SW 14.5 0.0 2.8
18:35 12.6 8.5 76 1019.2 9.2 SW 14.5 0.0 2.8
18:36 12.6 8.5 76 1019.3 8.3 SW 14.5 0.0 2.8
18:37 12.6 8.5 76 1019.2 9.2 NW 14.5 0.0 2.8
18:38 12.6 8.5 76 1019.3 8.3 SW 14.5 0.0 2.8
18:40 12.6 8.5 76 1019.3 6.9 SW 14.5 0.0 2.8
18:41 12.5 8.4 76 1019.2 9.2 SW 14.5 0.0 2.8
18:42 12.5 8.6 77 1019.3 6.0 NW 14.5 0.0 2.8
18:43 12.5 8.4 76 1019.2 9.2 NW 14.5 0.0 2.8
18:44 12.5 8.6 77 1019.2 8.3 W 14.5 0.0 2.8
18:45 12.5 8.6 77 1019.3 8.3 SW 9.2 0.0 2.8
18:46 12.5 8.6 77 1019.3 12.1 SW 12.1 0.0 2.8
18:47 12.5 8.6 77 1019.3 7.6 N 12.1 0.0 2.8
18:48 12.4 8.5 77 1019.3 9.2 SW 12.1 0.0 2.8
18:49 12.4 8.5 77 1019.4 8.3 SW 12.1 0.0 2.8
18:50 12.4 8.5 77 1019.3 9.2 WNW 12.1 0.0 2.8
18:51 12.4 8.5 77 1019.3 9.8 NW 12.1 0.0 2.8
18:52 12.3 8.4 77 1019.4 6.9 NNW 12.1 0.0 2.8
18:53 12.4 8.5 77 1019.3 8.3 WSW 12.1 0.0 2.8
18:54 12.3 8.6 78 1019.3 7.6 W 12.1 0.0 2.8
18:55 12.3 8.6 78 1019.3 9.2 S 12.1 0.0 2.8
18:56 12.3 8.6 78 1019.3 8.3 W 10.7 0.0 2.8
18:57 12.3 8.6 78 1019.2 9.2 W 10.7 0.0 2.8
18:59 12.3 8.6 78 1019.5 12.1 SW 12.1 0.0 2.8
19:00 12.3 8.6 78 1019.4 6.9 W 12.1 0.0 2.8
19:01 12.3 8.6 78 1019.4 9.2 SW 12.1 0.0 2.8
19:02 12.3 8.6 78 1019.4 7.6 W 12.1 0.0 2.8
19:03 12.2 8.5 78 1019.3 8.3 SW 12.1 0.0 2.8
19:04 12.2 8.5 78 1019.3 8.3 SW 12.1 0.0 2.8
19:05 12.2 8.5 78 1019.1 7.6 N 12.1 0.0 2.8
19:06 12.2 8.5 78 1019.3 7.6 SW 12.1 0.0 2.8
19:07 12.2 8.5 78 1019.3 9.2 SW 12.1 0.0 2.8
19:08 12.2 8.5 78 1019.3 7.6 S 12.1 0.0 2.8
19:10 12.2 8.5 78 1019.4 8.3 WSW 9.2 0.0 2.8
19:11 12.2 8.5 78 1019.5 8.3 WSW 9.2 0.0 2.8
19:12 12.2 8.5 78 1019.3 7.6 SW 9.2 0.0 2.8
19:13 12.1 8.4 78 1019.4 7.6 SW 9.2 0.0 2.8
19:14 12.1 8.4 78 1019.6 6.9 WSW 9.2 0.0 2.8
19:15 12.1 8.4 78 1019.6 6.9 WSW 9.2 0.0 2.8
19:16 12.1 8.4 78 1019.7 6.0 SW 9.2 0.0 2.8
19:17 12.1 8.4 78 1019.6 7.6 SW 8.3 0.0 2.8
19:18 12.1 8.4 78 1019.6 5.4 W 9.2 0.0 2.8
19:19 12.1 8.4 78 1019.8 5.4 NW 9.2 0.0 2.8
19:20 12.1 8.4 78 1019.7 5.4 SW 9.2 0.0 2.8
19:21 12.1 8.4 78 1019.8 9.8 S 9.8 0.0 2.8
19:22 12.0 8.3 78 1019.8 6.9 NW 9.8 0.0 2.8
19:23 12.0 8.5 79 1019.8 6.9 SW 9.8 0.0 2.8
19:24 12.0 8.3 78 1019.8 5.4 SW 9.8 0.0 2.8
19:26 12.0 8.5 79 1019.8 7.6 SW 9.8 0.0 2.8
19:27 12.0 8.5 79 1019.8 6.0 W 9.8 0.0 2.8
19:28 12.0 8.5 79 1020.0 5.4 SW 9.8 0.0 2.8
19:29 12.0 8.5 79 1019.8 5.4 SSW 9.8 0.0 2.8
19:30 12.0 8.5 79 1019.8 4.5 SW 9.8 0.0 2.8
19:31 11.9 8.4 79 1019.9 6.0 SW 9.8 0.0 2.8
19:32 11.9 8.4 79 1019.7 5.4 SW 7.6 0.0 2.8
19:33 11.9 8.4 79 1019.8 7.6 WSW 7.6 0.0 2.8
19:34 11.9 8.4 79 1019.7 6.0 SW 7.6 0.0 2.8
19:35 11.9 8.4 79 1019.7 3.8 SW 7.6 0.0 2.8
19:36 11.9 8.4 79 1020.0 3.8 SW 7.6 0.0 2.8
19:37 11.9 8.4 79 1019.8 4.5 WSW 7.6 0.0 2.8
19:38 11.9 8.4 79 1019.9 6.0 NW 7.6 0.0 2.8
19:39 11.9 8.4 79 1020.1 6.0 SW 7.6 0.0 2.8
19:40 11.8 8.3 79 1019.8 4.5 SW 7.6 0.0 2.8
19:41 11.8 8.3 79 1019.8 6.0 SW 7.6 0.0 2.8
19:42 11.8 8.3 79 1019.8 6.9 SW 7.6 0.0 2.8
19:43 11.8 8.3 79 1019.8 5.4 W 6.9 0.0 2.8
19:45 11.8 8.3 79 1019.8 6.0 S 6.9 0.0 2.8
19:46 11.7 8.4 80 1019.7 6.9 SW 6.9 0.0 2.8
19:47 11.7 8.4 80 1019.8 6.0 SW 6.9 0.0 2.8
19:48 11.8 8.5 80 1019.9 5.4 S 6.9 0.0 2.8
19:49 11.7 8.4 80 1019.9 5.4 SSW 6.9 0.0 2.8
19:50 11.7 8.4 80 1020.0 5.4 SW 6.9 0.0 2.8
19:51 11.7 8.4 80 1020.2 6.0 SW 6.9 0.0 2.8
19:52 11.7 8.4 80 1020.1 6.0 SW 6.9 0.0 2.8
19:53 11.7 8.4 80 1020.0 7.6 S 7.6 0.0 2.8
19:54 11.7 8.4 80 1019.9 5.4 SW 7.6 0.0 2.8
19:55 11.7 8.4 80 1019.9 5.4 NW 7.6 0.0 2.8
19:56 11.7 8.4 80 1019.9 6.9 SW 7.6 0.0 2.8
19:57 11.6 8.3 80 1019.8 6.0 S 7.6 0.0 2.8
19:58 11.6 8.3 80 1020.1 4.5 SW 7.6 0.0 2.8
19:59 11.6 8.3 80 1020.1 4.5 SW 7.6 0.0 2.8
20:00 11.6 8.3 80 1020.0 5.4 W 7.6 0.0 2.8
20:01 11.6 8.3 80 1020.0 6.9 SW 7.6 0.0 2.8
20:02 11.6 8.3 80 1020.0 6.9 SW 7.6 0.0 2.8
20:03 11.6 8.3 80 1019.8 7.6 WSW 7.6 0.0 2.8
20:04 11.6 8.5 81 1019.8 8.3 SW 8.3 0.0 2.8
20:05 11.6 8.5 81 1019.9 5.4 SW 8.3 0.0 2.8
20:07 11.6 8.5 81 1020.0 3.8 W 8.3 0.0 2.8
20:08 11.6 8.5 81 1020.0 6.9 SW 8.3 0.0 2.8
20:09 11.6 8.5 81 1019.9 6.0 SW 8.3 0.0 2.8
20:10 11.6 8.5 81 1019.8 5.4 S 8.3 0.0 2.8
20:11 11.7 8.6 81 1019.9 5.4 W 8.3 0.0 2.8
20:12 11.5 8.4 81 1020.1 5.4 SW 8.3 0.0 2.8
20:13 11.5 8.4 81 1019.8 4.5 SW 8.3 0.0 2.8
20:14 11.5 8.4 81 1019.9 4.5 SW 8.3 0.0 2.8
20:15 11.5 8.4 81 1020.1 3.8 S 6.9 0.0 2.8
20:16 11.5 8.4 81 1020.0 4.5 S 6.9 0.0 2.8
20:17 11.5 8.4 81 1020.0 4.5 W 6.9 0.0 2.8
20:18 11.5 8.4 81 1020.1 6.0 SW 6.9 0.0 2.8
20:19 11.5 8.4 81 1020.2 3.8 W 6.9 0.0 2.8
20:20 11.7 8.6 81 1020.4 5.4 SW 6.9 0.0 2.8
20:21 11.5 8.4 81 1020.2 6.9 W 6.9 0.0 2.8
20:22 11.4 8.4 82 1020.4 3.8 SW 6.9 0.0 2.8
20:23 11.5 8.4 81 1020.3 6.0 S 6.9 0.0 2.8
20:24 11.5 8.5 82 1020.4 4.5 S 6.9 0.0 2.8
20:25 11.4 8.4 82 1020.4 5.4 WSW 6.9 0.0 2.8
20:26 11.4 8.4 82 1020.4 5.4 SW 6.9 0.0 2.8
20:27 11.4 8.4 82 1020.4 5.4 SW 6.9 0.0 2.8
20:28 11.4 8.4 82 1020.4 3.8 SW 6.9 0.0 2.8
20:29 11.4 8.4 82 1020.5 7.6 SW 7.6 0.0 2.8
20:30 11.4 8.4 82 1020.5 4.5 SW 7.6 0.0 2.8
20:31 11.4 8.4 82 1020.5 4.5 SW 7.6 0.0 2.8
20:32 11.4 8.4 82 1020.3 6.9 SW 7.6 0.0 2.8
20:33 11.4 8.4 82 1020.2 4.5 SW 7.6 0.0 2.8
20:35 11.4 8.4 82 1020.3 3.8 SW 7.6 0.0 2.8
20:36 11.4 8.4 82 1020.2 5.4 WSW 7.6 0.0 2.8
20:37 11.4 8.6 83 1020.4 5.4 WSW 7.6 0.0 2.8
20:38 11.4 8.6 83 1020.3 6.0 SW 7.6 0.0 2.8
20:39 11.3 8.5 83 1020.3 5.4 SW 7.6 0.0 2.8
20:40 11.4 8.6 83 1020.2 5.4 S 6.9 0.0 2.8
20:41 11.4 8.6 83 1020.3 3.8 NW 6.9 0.0 2.8
20:42 11.4 8.6 83 1020.1 3.8 WSW 6.9 0.0 2.8
20:43 11.4 8.6 83 1020.3 6.0 W 6.9 0.0 2.8
20:44 11.4 8.6 83 1020.4 6.0 SW 6.9 0.0 2.8
20:45 11.4 8.6 83 1020.4 6.0 WSW 6.9 0.0 2.8
20:46 11.4 8.6 83 1020.4 4.5 SW 6.9 0.0 2.8
20:47 11.4 8.6 83 1020.4 4.5 SW 6.9 0.0 2.8
20:48 11.3 8.5 83 1020.3 3.8 SW 6.9 0.0 2.8
20:49 11.4 8.6 83 1020.4 3.8 SW 6.9 0.0 2.8
20:50 11.3 8.5 83 1020.4 5.4 W 6.0 0.0 2.8
20:51 11.3 8.5 83 1020.4 3.8 SW 6.0 0.0 2.8
20:52 11.3 8.5 83 1020.4 4.5 SW 6.0 0.0 2.8
20:53 11.3 8.5 83 1020.4 3.1 SW 6.0 0.0 2.8
20:54 11.3 8.5 83 1020.4 4.5 SW 6.0 0.0 2.8
20:55 11.3 8.7 84 1020.3 3.1 SW 5.4 0.0 2.8
20:56 11.3 8.5 83 1020.4 3.1 SW 5.4 0.0 2.8
20:57 11.3 8.7 84 1020.5 2.2 SW 5.4 0.0 2.8
20:58 11.3 8.7 84 1020.6 3.1 SW 5.4 0.0 2.8
20:59 11.3 8.7 84 1020.6 3.1 SW 5.4 0.0 2.8
21:00 11.3 8.7 84 1020.6 3.8 SW 5.4 0.0 2.8
21:01 11.2 8.6 84 1020.7 3.8 S 4.5 0.0 2.8
21:02 11.2 8.6 84 1020.6 3.8 SW 4.5 0.0 2.8
21:03 11.2 8.6 84 1020.6 3.8 SW 4.5 0.0 2.8
21:04 11.2 8.6 84 1020.5 3.1 SW 5.4 0.0 2.8
21:05 11.2 8.6 84 1020.4 3.8 SW 5.4 0.0 2.8
21:06 11.2 8.6 84 1020.6 4.5 SW 5.4 0.0 2.8
21:07 11.1 8.5 84 1020.3 3.1 SW 5.4 0.0 2.8
21:08 11.1 8.5 84 1020.6 4.5 SW 5.4 0.0 2.8
21:09 11.1 8.5 84 1020.6 5.4 W 5.4 0.0 2.8
21:10 11.1 8.5 84 1020.6 3.8 WSW 5.4 0.0 2.8
21:11 11.1 8.5 84 1020.5 6.9 SW 6.9 0.0 2.8
21:12 11.1 8.5 84 1020.5 6.9 SW 6.9 0.0 2.8
21:13 11.1 8.5 84 1020.6 6.9 SW 6.9 0.0 2.8
21:14 11.1 8.5 84 1020.7 6.9 SW 6.9 0.0 2.8
21:15 11.1 8.5 84 1020.6 5.4 SW 6.9 0.0 2.8
21:16 11.0 8.4 84 1020.5 6.0 SW 6.9 0.0 2.8
21:17 11.0 8.4 84 1020.6 4.5 W 6.9 0.0 2.8
21:18 11.0 8.4 84 1020.6 5.4 S 6.9 0.0 2.8
21:19 11.0 8.4 84 1020.4 5.4 SW 6.9 0.0 2.8
21:20 11.0 8.4 84 1020.6 6.0 SW 6.9 0.0 2.8
21:21 11.0 8.6 85 1020.7 4.5 W 6.9 0.0 2.8
21:22 11.0 8.4 84 1020.6 6.9 SW 6.9 0.0 2.8
21:24 11.0 8.6 85 1020.7 6.9 SW 6.9 0.0 2.8
21:25 11.0 8.6 85 1020.8 6.0 SW 6.9 0.0 2.8
21:26 11.0 8.6 85 1020.7 6.0 WSW 6.9 0.0 2.8
21:27 11.0 8.6 85 1020.7 4.5 SW 6.9 0.0 2.8
21:28 11.0 8.6 85 1020.9 6.0 WSW 6.9 0.0 2.8
21:29 11.0 8.6 85 1020.8 6.0 SW 6.9 0.0 2.8
21:30 11.0 8.6 85 1020.8 4.5 SW 6.9 0.0 2.8
21:31 11.0 8.6 85 1020.8 4.5 SW 6.9 0.0 2.8
21:32 11.0 8.6 85 1020.9 6.0 SW 6.9 0.0 2.8
21:33 11.0 8.6 85 1021.0 4.5 SW 6.9 0.0 2.8
21:34 11.0 8.6 85 1021.0 4.5 SW 6.0 0.0 2.8
21:35 11.0 8.6 85 1021.0 5.4 S 6.0 0.0 2.8
21:36 11.0 8.6 85 1021.0 5.4 SW 6.0 0.0 2.8
21:37 11.0 8.6 85 1020.9 6.0 S 6.0 0.0 2.8
21:38 11.0 8.6 85 1020.9 5.4 W 6.0 0.0 2.8
21:39 11.0 8.6 85 1020.9 4.5 SW 6.0 0.0 2.8
21:40 11.0 8.6 85 1020.8 6.0 SW 6.0 0.0 2.8
21:41 11.0 8.6 85 1020.9 6.0 SW 6.9 0.0 2.8
21:42 11.0 8.6 85 1020.9 6.9 SW 6.9 0.0 2.8
21:43 11.0 8.6 85 1020.9 6.0 W 6.9 0.0 2.8
21:44 11.0 8.6 85 1020.9 5.4 NW 6.9 0.0 2.8
21:45 11.0 8.6 85 1020.8 4.5 SW 6.9 0.0 2.8
21:46 11.0 8.6 85 1020.9 3.8 SW 6.9 0.0 2.8
21:47 11.0 8.6 85 1020.8 4.5 SW 6.9 0.0 2.8
21:48 11.0 8.6 85 1020.8 5.4 SW 6.9 0.0 2.8
21:49 11.0 8.6 85 1020.9 4.5 W 6.9 0.0 2.8
21:50 11.0 8.6 85 1020.9 6.0 S 6.9 0.0 2.8
21:51 11.0 8.6 85 1021.1 6.0 SSW 6.9 0.0 2.8
21:53 11.0 8.6 85 1020.9 5.4 W 6.0 0.0 2.8
21:54 10.9 8.5 85 1020.7 6.0 SW 6.0 0.0 2.8
21:55 11.0 8.6 85 1020.8 5.4 SW 6.0 0.0 2.8
21:56 10.9 8.5 85 1020.7 5.4 S 6.0 0.0 2.8
21:57 10.9 8.5 85 1020.9 4.5 W 6.0 0.0 2.8
21:58 10.9 8.5 85 1020.9 4.5 SW 6.0 0.0 2.8
21:59 11.0 8.6 85 1021.1 4.5 SW 6.0 0.0 2.8
22:00 10.9 8.5 85 1021.1 5.4 S 6.0 0.0 2.8
22:01 10.9 8.5 85 1020.9 5.4 NW 6.0 0.0 2.8
22:02 10.9 8.5 85 1021.0 5.4 W 6.0 0.0 2.8
22:03 10.9 8.5 85 1021.2 5.4 S 6.0 0.0 2.8
22:04 10.9 8.5 85 1021.2 6.0 SSW 6.0 0.0 2.8
22:05 10.9 8.5 85 1021.1 5.4 W 6.0 0.0 2.8
22:06 11.0 8.6 85 1021.0 4.5 SW 6.0 0.0 2.8
22:07 11.0 8.6 85 1021.0 4.5 S 6.0 0.0 2.8
22:08 10.9 8.5 85 1020.9 6.0 W 6.0 0.0 2.8
22:09 11.0 8.6 85 1020.8 5.4 SW 6.0 0.0 2.8
22:10 11.0 8.6 85 1020.9 6.0 N 6.0 0.0 2.8
22:11 11.0 8.6 85 1020.8 5.4 W 6.0 0.0 2.8
22:12 11.0 8.6 85 1020.8 5.4 W 6.0 0.0 2.8
22:13 11.0 8.6 85 1020.8 4.5 S 6.0 0.0 2.8
22:14 10.9 8.5 85 1020.7 5.4 S 6.0 0.0 2.8
22:15 10.9 8.5 85 1020.8 4.5 S 6.0 0.0 2.8
22:16 10.9 8.5 85 1020.9 3.1 SW 6.0 0.0 2.8
22:18 10.9 8.5 85 1020.7 3.8 SW 6.0 0.0 2.8
22:19 10.9 8.5 85 1020.7 3.8 SW 6.0 0.0 2.8
22:20 10.9 8.5 85 1020.7 3.1 S 6.0 0.0 2.8
22:21 10.9 8.5 85 1020.7 3.1 S 5.4 0.0 2.8
22:22 10.9 8.5 85 1020.8 2.2 S 5.4 0.0 2.8
22:23 10.9 8.7 86 1020.8 2.2 SW 5.4 0.0 2.8
22:24 10.9 8.7 86 1020.9 3.1 S 4.5 0.0 2.8
22:25 10.8 8.4 85 1020.8 2.2 S 3.8 0.0 2.8
22:26 10.8 8.6 86 1020.9 1.6 S 3.8 0.0 2.8
22:27 10.8 8.6 86 1020.9 0.7 S 3.8 0.0 2.8
22:28 10.8 8.6 86 1021.1 0.0 S 3.8 0.0 2.8
22:29 10.7 8.5 86 1020.9 2.2 S 3.1 0.0 2.8
22:30 10.8 8.6 86 1021.0 2.2 SW 3.1 0.0 2.8
22:31 10.7 8.5 86 1021.0 3.1 SW 3.1 0.0 2.8
22:32 10.7 8.5 86 1021.2 1.6 WSW 3.1 0.0 2.8
22:33 10.7 8.5 86 1021.3 2.2 NW 3.1 0.0 2.8
22:34 10.7 8.5 86 1021.2 4.5 W 4.5 0.0 2.8
22:35 10.7 8.5 86 1021.3 3.1 W 4.5 0.0 2.8
22:36 10.7 8.5 86 1021.3 2.2 W 4.5 0.0 2.8
22:37 10.6 8.4 86 1021.3 2.2 SW 4.5 0.0 2.8
22:38 10.6 8.4 86 1021.3 3.1 SW 4.5 0.0 2.8
22:39 10.6 8.4 86 1021.4 3.1 SW 4.5 0.0 2.8
22:40 10.6 8.4 86 1021.4 3.8 SW 4.5 0.0 2.8
22:41 10.6 8.4 86 1021.3 3.8 SW 4.5 0.0 2.8
22:42 10.6 8.4 86 1021.3 5.4 WSW 5.4 0.0 2.8
22:43 10.6 8.4 86 1021.3 5.4 SW 5.4 0.0 2.8
22:45 10.6 8.4 86 1021.3 3.8 SW 5.4 0.0 2.8
22:46 10.6 8.4 86 1021.2 4.5 SW 5.4 0.0 2.8
22:47 10.6 8.4 86 1021.2 3.8 SW 5.4 0.0 2.8
22:48 10.6 8.4 86 1021.1 3.8 SW 5.4 0.0 2.8
22:49 10.6 8.4 86 1021.2 3.8 W 5.4 0.0 2.8
22:50 10.5 8.3 86 1021.2 3.8 S 5.4 0.0 2.8
22:51 10.5 8.3 86 1021.2 3.1 SW 5.4 0.0 2.8
22:52 10.5 8.3 86 1021.3 3.1 S 5.4 0.0 2.8
22:53 10.5 8.3 86 1021.2 2.2 SW 5.4 0.0 2.8
22:54 10.5 8.3 86 1021.3 2.2 SE 4.5 0.0 2.8
22:55 10.5 8.4 87 1021.3 2.2 SW 4.5 0.0 2.8
22:56 10.5 8.4 87 1021.3 3.1 SW 4.5 0.0 2.8
22:57 10.5 8.4 87 1021.3 2.2 SW 4.5 0.0 2.8
22:58 10.5 8.4 87 1021.3 2.2 SW 4.5 0.0 2.8
22:59 10.5 8.4 87 1021.4 1.6 S 4.5 0.0 2.8
23:00 10.5 8.4 87 1021.3 1.6 SW 4.5 0.0 2.8
23:02 10.5 8.4 87 1021.2 2.2 SW 3.8 0.0 2.8
23:03 10.5 8.4 87 1021.3 3.1 SE 3.8 0.0 2.8
23:04 10.5 8.4 87 1021.2 3.1 SW 3.8 0.0 2.8
23:05 10.5 8.4 87 1021.2 2.2 S 3.1 0.0 2.8
23:06 10.5 8.4 87 1021.1 1.6 S 3.1 0.0 2.8
23:07 10.5 8.4 87 1021.2 0.0 S 3.1 0.0 2.8
23:08 10.5 8.4 87 1021.2 0.0 SW 3.1 0.0 2.8
23:09 10.5 8.4 87 1021.2 0.0 SW 3.1 0.0 2.8
23:10 10.5 8.4 87 1021.2 0.0 SW 3.1 0.0 2.8
23:11 10.5 8.4 87 1021.1 0.0 SW 3.1 0.0 2.8
23:12 10.5 8.4 87 1021.2 0.0 SW 3.1 0.0 2.8
23:13 10.5 8.4 87 1021.2 0.0 SW 3.1 0.0 2.8
23:15 10.5 8.4 87 1021.2 0.0 SW 2.2 0.0 2.8
23:16 10.5 8.4 87 1021.2 0.0 SW 2.2 0.0 2.8
23:17 10.5 8.4 87 1021.2 0.0 SW 0.0 0.0 2.8
23:18 10.5 8.6 88 1021.2 3.1 SW 3.1 0.0 2.8
23:19 10.5 8.6 88 1021.3 3.1 SW 3.1 0.0 2.8
23:20 10.5 8.4 87 1021.3 3.1 SW 3.1 0.0 2.8
23:21 10.5 8.6 88 1021.2 3.1 W 3.1 0.0 2.8
23:22 10.5 8.6 88 1021.0 3.8 SW 3.8 0.0 2.8
23:23 10.5 8.6 88 1021.1 2.2 SW 3.8 0.0 2.8
23:25 10.5 8.6 88 1021.0 3.1 SW 3.8 0.0 2.8
23:26 10.4 8.5 88 1021.1 2.2 SW 3.8 0.0 2.8
23:27 10.5 8.6 88 1021.1 3.1 SW 3.8 0.0 2.8
23:28 10.5 8.6 88 1021.1 3.1 W 3.8 0.0 2.8
23:29 10.5 8.6 88 1021.0 3.1 W 3.8 0.0 2.8
23:30 10.5 8.6 88 1021.2 3.1 SW 3.8 0.0 2.8
23:31 10.5 8.6 88 1021.1 2.2 SW 3.8 0.0 2.8
23:32 10.5 8.6 88 1021.1 2.2 SW 3.8 0.0 2.8
23:33 10.5 8.6 88 1021.0 3.8 SW 3.8 0.0 2.8
23:34 10.5 8.6 88 1021.0 3.1 W 3.8 0.0 2.8
23:35 10.5 8.6 88 1021.1 2.2 W 3.8 0.0 2.8
23:36 10.5 8.6 88 1021.1 3.1 SW 3.8 0.0 2.8
23:37 10.5 8.6 88 1021.2 3.8 SE 3.8 0.0 2.8
23:38 10.5 8.6 88 1021.2 2.2 S 3.8 0.0 2.8
23:39 10.5 8.6 88 1021.2 3.1 SW 3.8 0.0 2.8
23:40 10.5 8.6 88 1021.2 3.1 SW 3.8 0.0 2.8
23:41 10.5 8.6 88 1021.2 2.2 SW 3.8 0.0 2.8
23:42 10.5 8.6 88 1021.1 1.6 WSW 3.8 0.0 2.8
23:43 10.5 8.6 88 1021.3 3.8 W 3.8 0.0 2.8
23:44 10.5 8.6 88 1021.3 2.2 SW 3.8 0.0 2.8
23:45 10.6 8.7 88 1021.3 2.2 S 3.8 0.0 2.8
23:47 10.6 8.7 88 1021.3 1.6 S 3.8 0.0 2.8
23:48 10.6 8.7 88 1021.2 1.6 SW 3.8 0.0 2.8
23:49 10.6 8.7 88 1021.3 0.7 S 3.8 0.0 2.8
23:50 10.6 8.7 88 1021.3 1.6 SW 3.8 0.0 2.8
23:51 10.6 8.9 89 1021.3 0.0 SW 3.8 0.0 2.8
23:52 10.6 8.7 88 1021.3 0.7 SW 3.8 0.0 2.8
23:53 10.6 8.7 88 1021.2 0.7 SW 3.1 0.0 2.8
23:54 10.6 8.9 89 1021.2 0.0 SW 3.1 0.0 2.8
23:55 10.6 8.7 88 1021.2 0.0 SW 3.1 0.0 2.8
23:56 10.6 8.9 89 1021.2 0.0 SW 3.1 0.0 2.8
23:57 10.6 8.9 89 1021.3 0.0 SW 1.6 0.0 2.8
23:58 10.6 8.9 89 1021.0 0.0 NW 1.6 0.0 2.8
23:59 10.6 8.9 89 1021.1 0.0 NW 1.6 0.0 2.8

UK - WEATHER STATION TOPSITES - UK World Weather Websites

This is a private weather station, never base important decisions or events on data from this weather station. Although every effort has been made to make the data as accurate as possible it does not meet MetOffice standards. It is proved as a guide of local weather conditions. We accept no liability for any loss which may arise from use of the data.

Copyright © Carnkie Weather 2009 - 2018.